     2              OBSERVATION DATA    GPS                 RINEX VERSION / TYPE
teqc 2000Feb29 Duncan Agnew 20000707 21:03:44UTC            PGM / RUN BY / DATE
                                                            COMMENT
L2: 1 -> 1; 5 -> 5; 60 -> 9                                 COMMENT
L2: 1 -> 1; 5 -> 5; 60 -> 9                                 COMMENT
L2: 1 -> 1; 5 -> 5; 60 -> 9                                 COMMENT
L2: 1 -> 1; 5 -> 5; 60 -> 9                                 COMMENT
L2: 1 -> 1; 5 -> 5; 60 -> 9                                 COMMENT
Original Marker Name: 6498                                  COMMENT
Campaign Name: USMC MCAGCC                                  COMMENT
4-Character Station Name: ANT_                              COMMENT
6-Character Antenna Code: TRMSST                            COMMENT
Vertical Measurement Point: BGP                             COMMENT
Vertical Offset to Rinex Ref. Point: 0.0597                 COMMENT
Radial Measurement Point: NGP                               COMMENT
Radial Offset to Rinex Ref. Point: 0.2334                   COMMENT
Antenna Height from Field Measurement: 1.6270 m             COMMENT
Additional Antenna Identification Info.:                    COMMENT
Model 14532.00                                              COMMENT
Original XYZ: -2339444.1268 -4715336.2877 3591074.6137      COMMENT
New XYZ position is based on association with SCEC monument COMMENT
E1F2H5W2+0011. Position of that monument is believed to be  COMMENT
valid to within 1 m horizontally; vertical accuracy         COMMENT
should be no worse than 3-times this value.                 COMMENT
                                                            COMMENT
Revised Rinex header created by UCSD GPS archive for        COMMENT
GSAC on 10-Aug-2000 (2000:223) 22:19:47 GMT                 COMMENT
For assistance contact dagnew@ucsd.edu                      COMMENT
or anderson@python.ucsd.edu                                 COMMENT
                                                            COMMENT
ANT                                                         MARKER NAME
____0001                                                    MARKER NUMBER
-Unknown- 11TH ARTILLERY US MARINE CORPS                    OBSERVER / AGENCY
16498 TRIMBLE MSGR NP 7.57; SP 3.53                         REC # / TYPE / VERS
S/N UNKNOWN TR 4000SST L1/L2 GEO                            ANT # / TYPE
 -2339443.9805 -4715335.0152  3591074.2352                  APPROX POSITION XYZ
        1.5505        0.0000        0.0000                  ANTENNA: DELTA H/E/N
     1     1     0                                          WAVELENGTH FACT L1/2
     6    L1    L2    P1    P2    S1    S2                  # / TYPES OF OBSERV
     0                                                      INTERVAL
  1999     3     1    19    50   15.000000                  TIME OF FIRST OBS
  1999     3     1    20    45   15.000000                  TIME OF LAST OBS
                                                            END OF HEADER
 99  3  1 19 50 15.0000000  0  6G 2G 7G 4G15G26G27
   1350782.18317   1054507.36216  21393609.578    21393619.520          21.000
        18.500
  -6190828.85716  -4811538.78216  20404030.000    20404039.121          19.750
        19.500
   -883002.55613   -657668.72915  23999680.891    23999695.590           6.000
         7.000
    778617.06614    614170.36715  23977353.484    23977362.027           7.250
         5.500
  -4399674.55115  -3416797.05116  22905183.055    22905195.797           9.250
        12.750
   7080306.31216   5517285.42916  21524142.445    21524152.727          16.250
        16.500
 99  3  1 19 50 30.0000000  0  6G 2G 7G 4G15G26G27
   1362204.757 7   1063408.066 6  21395783.242    21395793.109          21.000
        18.500
  -6187927.714 7  -4809278.159 6  20404582.164    20404591.219          20.000
        19.500
   -931641.860 4   -695569.428 5  23990425.406    23990439.605           6.250
         7.000
    806348.991 4    635779.760 5  23982629.477    23982639.367           6.250
         5.750
  -4388679.268 5  -3408229.327 5  22907276.000    22907287.770          10.000
        11.750
   7122155.030 6   5549894.771 6  21532106.148    21532116.414          16.500
        16.250
 99  3  1 19 50 45.0000000  0  5G 2G 7G 4G26G27
   1373672.885 7   1072344.260 6  21397965.453    21397975.301          21.000
        18.500
  -6184911.875 7  -4806928.165 6  20405156.055    20405165.145          20.000
        19.250
   -980275.299 4   -733465.553 5  23981170.805    23981184.574           6.250
         6.750
  -4377554.888 5  -3399560.986 5  22909392.898    22909404.098          10.000
        11.250
   7164120.185 6   5582594.844 6  21540091.953    21540102.215          16.500
        16.250
 99  3  1 19 51  0.0000000  0  5G 2G 7G 4G26G27
   1385189.548 7   1081318.280 6  21400157.094    21400166.871          21.000
        18.500
  -6181779.670 7  -4804487.487 6  20405752.141    20405761.148          20.000
        19.250
  -1028904.652 4   -771358.513 5  23971916.266    23971930.625           6.250
         6.750
  -4366300.929 5  -3390791.660 5  22911534.750    22911545.434          10.500
        10.750
   7206200.211 6   5615384.419 6  21548099.586    21548109.781          16.500
        16.250
 99  3  1 19 51 15.0000000  0  5G 2G 7G 4G26G27
   1396752.099 7   1090328.055 6  21402357.359    21402367.137          21.000
        18.500
  -6178533.903 7  -4801958.327 6  20406369.820    20406378.926          20.000
        19.500
  -1077530.659 4   -809248.859 5  23962663.266    23962677.211           6.500
         6.750
  -4354919.337 5  -3381922.876 5  22913701.414    22913711.652          11.250
        11.500
   7248390.181 6   5648259.665 6  21556128.047    21556138.418          16.750
        16.250
 99  3  1 19 51 30.0000000  0  5G 2G 7G 4G26G27
   1408362.230 7   1099374.903 6  21404566.773    21404576.480          21.000
        18.500
  -6175174.338 7  -4799340.491 6  20407009.188    20407018.293          20.000
        19.750
  -1126149.515 4   -847133.625 5  23953411.844    23953425.543           6.750
         6.750
  -4343411.302 5  -3372955.604 6  22915890.875    22915901.832          10.000
        12.500
   7290690.052 6   5681220.556 6  21564177.695    21564188.000          16.500
        16.250
 99  3  1 19 51 45.0000000  0  5G 2G 7G 4G26G27
   1420018.997 7   1108458.097 6  21406784.945    21406794.715          21.000
        18.500
  -6171705.825 7  -4796637.752 6  20407669.219    20407678.375          20.000
        19.750
  -1174766.102 4   -885016.621 5  23944160.031    23944174.043           6.750
         6.750
  -4331778.440 5  -3363891.081 6  22918103.680    22918115.684           9.250
        12.250
   7333098.919 6   5714266.368 6  21572247.727    21572258.105          16.500
        16.250
 99  3  1 19 52  0.0000000  0  5G 2G 7G 4G26G27
   1431724.592 7   1117579.332 6  21409012.227    21409022.078          21.000
        18.500
  -6168126.530 7  -4793848.697 6  20408350.234    20408359.410          20.250
        20.000
  -1223381.382 4   -922898.602 5  23934908.797    23934923.184           6.750
         7.250
  -4320019.304 5  -3354728.134 6  22920341.891    22920353.402          10.500
        12.500
   7375615.764 6   5747396.322 6  21580338.523    21580348.816          16.250
        16.250
 99  3  1 19 52 15.0000000  0  5G 2G 7G 4G26G27
   1443479.463 7   1126738.972 6  21411249.188    21411259.156          20.750
        18.500
  -6164432.578 7  -4790970.296 6  20409053.203    20409062.453          20.250
        20.000
  -1271993.817 4   -960778.381 5  23925658.016    23925672.496           6.750
         7.000
  -4308131.500 5  -3345464.927 6  22922604.352    22922615.691          11.250
        12.500
   7418242.259 6   5780611.724 6  21588450.273    21588460.563          16.250
        16.250
 99  3  1 19 52 30.0000000  0  5G 2G 7G 4G26G27
   1455281.112 7   1135935.054 6  21413495.031    21413504.969          20.500
        18.500
  -6160624.367 7  -4788002.859 6  20409777.883    20409786.965          20.250
        19.750
  -1320604.179 4   -998656.522 5  23916408.094    23916421.934           7.000
         6.750
  -4296113.308 6  -3336100.125 6  22924891.945    22924902.609          12.750
        13.000
   7460973.306 6   5813908.590 6  21596581.516    21596592.020          16.000
        16.250
 99  3  1 19 52 45.0000000  0  5G 2G 7G 4G26G27
   1467130.137 7   1145168.052 6  21415749.719    21415759.637          20.500
        18.250
  -6156700.020 7  -4784944.931 6  20410524.633    20410533.660          20.000
        19.750
  -1369211.988 4  -1036532.684 5  23907158.000    23907172.238           6.750
         7.000
  -4283965.372 6  -3326634.210 6  22927204.055    22927214.563          14.750
        13.500
   7503807.958 6   5847286.189 6  21604732.797    21604743.301          15.750
        16.250
 99  3  1 19 53  0.0000000  0  5G 2G 7G 4G26G27
   1479024.405 7   1154436.308 6  21418013.086    21418023.074          20.500
        18.500
  -6152662.354 6  -4781798.696 6  20411292.836    20411302.043          19.750
        19.500
  -1417816.331 4  -1074406.134 5  23897908.555    23897922.887           6.750
         7.000
  -4271690.525 6  -3317069.406 6  22929539.609    22929550.199          14.250
        13.250
   7546744.234 6   5880742.968 6  21612903.297    21612913.902          15.750
        16.250
 99  3  1 19 53 15.0000000  0  5G 2G 7G 4G26G27
   1490963.878 7   1163739.791 6  21420285.047    21420295.031          20.500
        18.500
  -6148512.641 6  -4778565.156 6  20412082.523    20412091.613          19.750
        19.500
  -1466411.118 4  -1112272.136 5  23888661.602    23888675.605           6.750
         7.000
  -4259286.820 6  -3307404.191 6  22931899.477    22931909.840          12.500
        12.000
   7589784.004 6   5914280.400 6  21621093.602    21621104.129          15.750
        16.250
 99  3  1 19 53 30.0000000  4  1
0.000                                                       COMMENT
 99  3  1 19 53 30.0000000  0  5G 2G 7G 4G26G27
   1502943.749 7   1173074.750 6  21422564.945    21422574.832          20.750
        18.250
  -6144252.449 6  -4775245.526 6  20412893.109    20412902.375          19.750
        19.500
  -1514996.420 4  -1150130.742 5  23879415.789    23879430.297           6.500
         7.000
  -4246757.313 5  -3297640.951 6  22934283.063    22934294.195          10.750
        12.000
   7632927.661 6   5947898.779 6  21629303.406    21629314.098          15.500
        16.250
 99  3  1 19 53 45.0000000  0  5G 2G 7G 4G26G27
   1514963.603 7   1182440.870 6  21424852.180    21424862.195          20.500
        18.500
  -6139880.855 6  -4771839.093 6  20413725.016    20413734.230          19.750
        19.500
  -1563573.226 4  -1187982.747 5  23870172.172    23870186.070           6.750
         7.000
  -4234100.936 5  -3287778.874 6  22936691.484    22936703.430          10.500
        13.250
   7676180.077 6   5981601.911 6  21637533.977    21637544.770          15.500
        16.250
 99  3  1 19 54  0.0000000  0  5G 2G 7G 4G26G27
   1527021.321 7   1191836.489 6  21427146.758    21427156.789          20.500
        18.250
  -6135397.507 6  -4768345.575 6  20414578.453    20414587.582          19.750
        19.500
  -1612141.314 4  -1225827.934 5  23860929.797    23860943.703           6.750
         7.000
  -4221319.764 5  -3277819.554 6  22939124.172    22939135.773          11.500
        13.750
   7719538.786 6   6015387.864 6  21645785.117    21645795.688          15.500
        16.250
 99  3  1 19 54 15.0000000  0  5G 2G 7G 4G26G27
   1539112.922 7   1201258.514 6  21429447.586    21429457.531          20.500
        18.250
  -6130804.598 7  -4764766.688 6  20415452.508    20415461.504          20.000
        19.750
  -1660698.723 4  -1263664.817 5  23851689.625    23851703.836           6.750
         7.000
  -4208416.809 5  -3267765.323 6  22941579.352    22941590.664          11.500
        13.000
   7763000.491 6   6049254.067 6  21654055.719    21654066.359          15.750
        16.000
 99  3  1 19 54 30.0000000  0  5G 2G 7G 4G26G27
   1551238.009 7   1210706.635 6  21431754.938    21431764.867          20.500
        18.250
  -6126103.993 7  -4761103.882 6  20416346.805    20416356.023          20.000
        19.750
  -1709243.441 4  -1301491.804 5  23842451.523    23842465.824           6.500
         7.000
  -4195393.336 5  -3257617.177 5  22944057.586    22944068.430          11.500
        11.750
   7806564.719 6   6083200.166 6  21662345.703    21662356.332          15.500
        16.000
 99  3  1 19 54 45.0000000  0  5G 2G 7G 4G26G27
   1563398.683 7   1220182.489 6  21434069.234    21434079.125          20.500
        18.250
  -6121294.231 6  -4757356.019 6  20417261.859    20417271.055          19.750
        19.500
  -1757772.900 4  -1339306.904 5  23833216.852    23833230.953           6.500
         7.250
  -4182246.485 6  -3247372.885 5  22946559.969    22946570.207          12.250
        11.250
   7850232.542 6   6117226.993 6  21670655.367    21670666.055          15.500
        16.000
 99  3  1 19 55  0.0000000  0  5G 2G 7G 4G26G27
   1575594.537 7   1229685.751 6  21436389.953    21436399.730          20.500
        18.250
  -6116375.144 6  -4753522.966 6  20418198.094    20418207.188          19.500
        19.500
  -1806284.422 4  -1377108.003 5  23823985.492    23823999.195           6.500
         7.250
  -4168975.081 6  -3237031.529 5  22949085.406    22949096.203          12.000
        11.750
   7894010.112 6   6151339.327 6  21678986.008    21678996.637          15.750
        15.750
 99  3  1 19 55 15.0000000  0  5G 2G 7G 4G26G27
   1587828.116 7   1239218.408 6  21438717.883    21438727.711          20.500
        18.000
  -6111344.890 6  -4749603.288 6  20419155.289    20419164.363          19.500
        19.500
  -1854774.656 4  -1414892.535 5  23814757.867    23814771.828           6.500
         7.000
  -4155574.907 5  -3226589.852 6  22951635.250    22951646.715          11.250
        13.250
   7937900.821 6   6185539.825 6  21687338.234    21687348.734          15.500
        15.750
 99  3  1 19 55 30.0000000  0  5G 2G 7G 4G26G27
   1600098.375 7   1248779.652 6  21441052.688    21441062.445          20.500
        18.250
  -6106205.602 6  -4745598.655 6  20420133.320    20420142.270          19.750
        19.250
  -1903247.942 4  -1452663.848 5  23805533.781    23805547.703           6.250
         7.000
  -4142045.244 5  -3216047.285 6  22954209.477    22954221.152          10.500
        13.500
   7981902.989 6   6219827.171 6  21695711.438    21695722.211          15.500
        15.750
 99  3  1 19 55 45.0000000  0  5G 2G 7G 4G26G27
   1612408.839 7   1258372.219 6  21443395.297    21443405.164          20.500
        18.000
  -6100955.442 6  -4741507.624 6  20421132.422    20421141.523          19.750
        19.250
  -1951705.400 3  -1490422.839 5  23796312.141    23796326.305           6.000
         7.000
  -4128384.333 5  -3205402.441 6  22956808.844    22956820.551           9.750
        12.750
   8026017.198 6   6254201.826 6  21704106.219    21704116.875          15.500
        15.500
 99  3  1 19 56  0.0000000  0  5G 2G 7G 4G26G27
   1624759.716 7   1267996.286 6  21445745.703    21445755.555          20.500
        18.000
  -6095599.695 7  -4737334.317 6  20422151.797    20422160.711          20.000
        19.500
  -2000148.171 4  -1528170.361 5  23787094.047    23787108.109           6.250
         7.000
  -4114593.529 5  -3194656.394 6  22959433.047    22959444.926           9.750
        12.500
   8070237.062 6   6288658.813 6  21712521.133    21712531.598          15.500
        15.250
 99  3  1 19 56 15.0000000  0  5G 2G 7G 4G26G27
   1637160.510 7   1277659.246 6  21448105.492    21448115.375          20.500
        18.250
  -6090131.856 7  -4733073.670 6  20423192.234    20423201.273          20.000
        19.750
  -2048565.084 3  -1565897.748 5  23777880.422    23777894.641           6.000
         7.250
  -4100661.203 5  -3183800.075 6  22962084.602    22962095.785          10.500
        12.000
   8114567.702 6   6323202.113 6  21720957.000    21720967.602          15.750
        15.250
 99  3  1 19 56 30.0000000  0  5G 2G 7G 4G26G27
   1649608.834 7   1287359.237 6  21450474.328    21450484.199          20.500
        18.000
  -6084556.291 6  -4728729.077 6  20424253.172    20424262.281          19.750
        20.000
  -2096959.932 3  -1603607.935 5  23768670.961    23768685.266           6.000
         7.250
  -4086589.092 6  -3172834.808 5  22964762.875    22964773.328          12.000
        11.500
   8159006.983 6   6357830.063 6  21729413.648    21729423.984          15.750
        15.250
 99  3  1 19 56 45.0000000  0  5G 2G 7G 4G26G27
   1662102.149 7   1297094.292 6  21452851.703    21452861.578          20.750
        18.250
  -6078878.467 6  -4724304.797 6  20425333.531    20425342.781          19.750
        20.250
  -2145335.129 3  -1641302.815 5  23759465.578    23759479.730           6.000
         7.000
  -4072380.653 6  -3161763.308 5  22967466.828    22967477.230          12.750
        11.250
   8203550.605 6   6392539.327 6  21737890.047    21737900.367          15.750
        15.250
 99  3  1 19 57  0.0000000  0  5G 2G 7G 4G26G27
   1674642.589 7   1306866.066 6  21455238.000    21455247.930          20.750
        18.250
  -6073098.393 6  -4719800.851 6  20426433.234    20426442.633          19.500
        20.250
  -2193688.406 3  -1678980.605 5  23750264.125    23750278.223           6.000
         7.000
  -4058036.519 5  -3150586.066 5  22970196.406    22970206.797          11.750
        10.250
   8248199.638 6   6427330.732 6  21746386.484    21746396.949          16.000
        15.250
 99  3  1 19 57 15.0000000  0  5G 2G 7G 4G26G27
   1687232.091 7   1316676.072 6  21457633.859    21457643.664          21.000
        18.250
  -6067215.893 6  -4715217.084 6  20427552.539    20427561.914          19.250
        20.250
  -2242020.579 3  -1716641.956 5  23741066.594    23741081.000           5.750
         7.000
  -4043558.574 5  -3139304.552 5  22972951.180    22972961.293          11.500
         9.500
   8292952.698 6   6462203.188 6  21754902.734    21754913.320          16.000
        15.000
 99  3  1 19 57 30.0000000  0  5G 2G 7G 4G26G27
   1699871.471 7   1326524.944 6  21460039.109    21460048.996          21.000
        18.250
  -6061232.942 6  -4710555.039 6  20428691.164    20428700.477          19.250
        20.000
  -2290334.835 3  -1754289.338 5  23731872.750    23731886.836           5.750
         7.000
  -4028950.027 5  -3127921.252 5  22975730.836    22975741.195          11.000
         9.750
   8337805.747 6   6497153.564 6  21763438.063    21763448.551          15.750
        15.000
 99  3  1 19 57 45.0000000  0  5G 2G 7G 4G26G27
   1712562.582 7   1336414.117 6  21462454.297    21462464.125          21.000
        18.250
  -6055146.806 6  -4705812.606 6  20429849.484    20429858.617          19.500
        19.750
  -2338629.042 3  -1791921.104 5  23722682.758    23722696.863           5.750
         7.000
  -4014211.916 5  -3116437.016 5  22978535.344    22978546.652          10.750
        11.250
   8382760.588 6   6532183.254 6  21771992.813    21772003.289          15.750
        15.000
 99  3  1 19 58  0.0000000  0  5G 2G 7G 4G26G27
   1725305.495 7   1346343.660 6  21464879.219    21464889.141          21.000
        18.250
  -6048956.126 6  -4700988.698 6  20431027.547    20431036.621          19.500
        19.500
  -2386900.069 3  -1829534.797 5  23713496.883    23713510.898           5.750
         6.750
  -3999346.393 5  -3104853.516 6  22981364.563    22981376.086          11.000
        13.000
   8427817.510 6   6567292.487 6  21780566.898    21780577.457          15.750
        15.000
 99  3  1 19 58 15.0000000  0  5G 2G 7G 4G26G27
   1738099.279 7   1356312.838 6  21467313.586    21467323.488          21.000
        18.250
  -6042660.672 6  -4696083.158 6  20432225.711    20432234.590          19.750
        19.250
  -2435149.225 3  -1867131.469 5  23704315.313    23704329.363           5.750
         7.000
  -3984356.326 5  -3093172.979 6  22984217.008    22984228.746          11.250
        13.500
   8472975.675 6   6602480.612 6  21789160.180    21789170.859          15.500
        15.000
 99  3  1 19 58 30.0000000  0  6G 2G 7G 4G 9G26G27
   1750942.818 7   1366320.792 6  21469757.570    21469767.348          21.000
        18.000
  -6036258.478 6  -4691094.443 6  20433443.953    20433452.875          19.750
        19.500
  -2483379.476 3  -1904713.388 5  23695136.977    23695151.414           5.750
         7.000
    -14927.45313                                  24162232.063           5.500

  -3969247.494 5  -3081399.898 6  22987092.219    22987103.547          11.250
        13.000
   8518236.811 6   6637748.974 6  21797773.164    21797783.770          15.500
        15.000
 99  3  1 19 58 45.0000000  0  6G 2G 7G 4G 9G26G27
   1763838.163 7   1376369.105 6  21472211.484    21472221.320          20.750
        18.000
  -6029746.882 6  -4686020.477 6  20434683.125    20434692.066          19.750
        19.500
  -2531589.995 3  -1942279.933 5  23685962.891    23685977.105           5.750
         7.250
    -59701.341 3    -18603.84615  24153711.273    24153727.043           5.250
         7.250
  -3954022.528 6  -3069536.323 6  22989989.781    22990000.695          12.500
        12.500
   8563604.050 6   6673100.009 6  21806406.219    21806416.988          15.250
        15.250
 99  3  1 19 59  0.0000000  0  6G 2G 7G 4G 9G26G27
   1776777.309 7   1386451.554 6  21474673.727    21474683.516          20.500
        18.000
  -6023129.927 6  -4680864.404 6  20435942.172    20435951.348          19.500
        19.500
  -2579788.264 3  -1979836.940 5  23676791.461    23676805.340           6.000
         7.250
   -104456.447 3    -53477.812 5  24145194.797    24145210.465           5.500
         6.750
  -3938688.549 6  -3057587.782 6  22992908.133    22992918.660          14.250
        12.500
   8609070.883 6   6708528.650 6  21815058.281    21815069.195          15.250
        15.000
 99  3  1 19 59 15.0000000  0  6G 2G 7G 4G 9G26G27
   1789761.203 7   1396568.865 6  21477144.477    21477154.320          20.500
        18.000
  -6016405.391 6  -4675624.515 6  20437221.703    20437230.977          19.500
        19.750
  -2627976.302 3  -2017385.969 5  23667620.844    23667634.988           6.000
         7.250
   -149183.896 3    -88330.286 5  24136683.648    24136698.723           5.750
         6.750
  -3923243.188 6  -3045552.444 5  22995847.258    22995857.801          14.250
        11.750
   8654638.841 6   6744036.093 6  21823729.492    21823740.477          15.000
        15.250
 99  3  1 19 59 30.0000000  0  6G 2G 7G 4G 9G26G27
   1802790.465 7   1406721.532 6  21479623.828    21479633.715          20.500
        18.000
  -6009573.765 6  -4670301.166 6  20438521.867    20438531.008          19.500
        19.750
  -2676155.806 4  -2054928.363 5  23658453.164    23658466.949           6.250
         7.250
   -193880.896 3   -123158.989 5  24128177.797    24128192.949           5.500
         6.750
  -3907684.715 6  -3033428.971 5  22998807.469    22998818.410          12.250
        11.000
   8700309.570 6   6779623.615 6  21832420.570    21832431.551          15.000
        15.250
 99  3  1 19 59 45.0000000  0  6G 2G 7G 4G 9G26G27
   1815862.023 7   1416907.157 6  21482111.242    21482121.156          20.750
        18.000
  -6002637.150 6  -4664896.011 6  20439841.961    20439851.020          19.750
        20.000
  -2724326.855 4  -2092464.147 5  23649286.047    23649299.996           6.250
         7.500
   -238546.619 3   -157963.337 5  24119678.859    24119693.469           5.750
         6.500
  -3892013.940 5  -3021217.993 5  23001789.039    23001800.250          10.500
        10.250
   8746081.432 6   6815289.942 6  21841130.531    21841141.570          14.750
        15.250
 99  3  1 20  0  0.0000000  0  6G 2G 7G 4G 9G26G27
   1828969.931 7   1427121.099 6  21484605.781    21484615.578          20.750
        18.000
  -5995598.117 7  -4659411.057 6  20441181.477    20441190.461          20.000
        19.750
  -2772492.236 4  -2129995.544 5  23640120.891    23640134.789           6.250
         7.500
   -283179.631 4   -192742.177 5  24111185.242    24111199.688           6.250
         6.500
  -3876231.758 5  -3008920.210 5  23004792.250    23004802.965          10.250
         9.000
   8791950.373 6   6851031.911 6  21849859.148    21849870.246          14.750
        15.250
 99  3  1 20  0 15.0000000  0  6G 2G 7G 4G 9G26G27
   1842120.972 7   1437368.659 6  21487108.430    21487118.145          21.000
        18.000
  -5988452.493 6  -4653843.040 6  20442541.148    20442550.141          19.750
        19.750
  -2820647.249 4  -2167518.835 5  23630957.344    23630970.953           6.500
         7.750
   -327770.800 4   -227488.442 5  24102699.492    24102714.152           6.250
         6.500
  -3860329.557 5  -2996528.874 5  23007818.898    23007829.063          11.250
         8.750
   8837919.199 6   6886851.716 6  21858606.813    21858617.848          14.500
        15.000
 99  3  1 20  0 30.0000000  0  6G 2G 7G 4G 9G26G27
   1855312.497 7   1447647.751 6  21489618.633    21489628.348          21.000
        18.000
  -5981201.450 6  -4648192.882 6  20443920.914    20443929.969          19.500
        19.750
  -2868794.777 4  -2205036.322 5  23621795.109    23621808.707           6.750
         7.750
   -372319.558 3   -262201.637 5  24094222.633    24094236.539           6.000
         6.250
  -3844307.362 5  -2984044.048 5  23010867.797    23010878.004          11.250
         9.250
   8883985.524 6   6922747.490 6  21867373.000    21867384.242          14.500
        15.250
 99  3  1 20  0 45.0000000  0  6G 2G 7G 4G 9G26G27
   1868541.045 7   1457955.705 6  21492135.906    21492145.566          21.000
        17.750
  -5973848.245 6  -4642463.110 6  20445320.023    20445329.094          19.500
        19.750
  -2916935.414 4  -2242548.407 5  23612634.070    23612648.016           6.750
         8.250
   -416829.120 3   -296884.290 5  24085752.281    24085766.234           5.500
         6.000
  -3828165.133 5  -2971465.701 5  23013939.148    23013949.832          10.250
        10.000
   8930148.339 6   6958718.453 6  21876157.438    21876168.480          14.250
        15.000
 99  3  1 20  1  0.0000000  0  6G 2G 7G 4G 9G26G27
   1881805.718 7   1468291.811 6  21494660.078    21494669.797          21.000
        18.000
  -5966393.229 6  -4636654.012 6  20446738.523    20446747.746          19.500
        19.750
  -2965068.149 4  -2280054.356 5  23603474.578    23603487.934           7.250
         8.000
   -461297.927 3   -331535.184 5  24077289.484    24077303.969           5.500
         5.750
  -3811899.116 5  -2958790.901 5  23017034.672    23017045.793          10.750
        11.000
   8976405.418 6   6994762.867 6  21884959.914    21884970.984          14.250
        15.000
 99  3  1 20  1 15.0000000  0  6G 2G 7G 4G 9G26G27
   1895108.013 7   1478657.224 6  21497191.445    21497201.117          21.000
        18.000
  -5958836.455 6  -4630765.619 6  20448176.727    20448185.980          19.500
        20.000
  -3013190.220 5  -2317551.982 5  23594317.516    23594330.984           7.500
         8.250
   -505722.960 4   -366151.984 5  24068836.172    24068849.574           6.250
         5.250
  -3795507.368 6  -2946018.121 6  23020154.344    23020165.539          12.250
        12.500
   9022753.737 6   7030878.378 6  21893779.742    21893790.852          14.250
        14.750
 99  3  1 20  1 30.0000000  0  6G 2G 7G 4G 9G26G27
   1908449.055 7   1489052.843 6  21499730.133    21499739.922          21.000
        18.000
  -5951179.254 6  -4624798.972 6  20449633.906    20449643.199          19.500
        20.000
  -3061298.944 5  -2355039.215 5  23585162.422    23585175.887           7.500
         8.500
   -550108.053 4   -400737.662 5  24060389.891    24060403.500           6.500
         6.000
  -3778991.448 5  -2933148.601 6  23023297.070    23023308.617          11.500
        14.250
   9069193.505 6   7067065.152 6  21902617.133    21902628.238          14.500
        14.500
 99  3  1 20  1 45.0000000  0  6G 2G 7G 4G 9G26G27
   1921830.312 7   1499479.788 6  21502276.563    21502286.293          21.000
        18.000
  -5943416.081 6  -4618749.749 6  20451111.289    20451120.508          19.500
        20.250
  -3109386.129 5  -2392509.682 5  23576011.734    23576025.438           7.750
         8.750
   -594453.939 4   -435292.804 5  24051951.328    24051965.020           6.750
         6.750
  -3762349.928 5  -2920181.216 6  23026463.648    23026475.387          10.750
        14.500
   9115728.883 6   7103326.423 6  21911472.500    21911483.328          14.500
        14.500
 99  3  1 20  2  0.0000000  0  6G 2G 7G 4G 9G26G27
   1935251.321 7   1509937.716 6  21504830.578    21504840.516          20.750
        18.250
  -5935544.923 6  -4612616.380 6  20452609.086    20452618.320          19.500
        20.250
  -3157448.436 5  -2429960.749 5  23566865.820    23566879.203           8.000
         9.000
   -638760.934 4   -469817.616 5  24043519.430    24043533.727           6.250
         6.750
  -3745583.850 5  -2907116.798 6  23029654.422    23029665.656          11.000
        13.750
   9162358.464 6   7139661.098 6  21920345.813    21920356.754          14.250
        14.250
 99  3  1 20  2 15.0000000  0  6G 2G 7G 4G 9G26G27
   1948710.467 7   1520425.355 6  21507391.578    21507401.520          20.750
        18.250
  -5927568.528 6  -4606401.014 6  20454126.938    20454136.195          19.500
        20.250
  -3205488.140 5  -2467394.204 5  23557724.000    23557737.648           8.000
         9.000
   -683032.861 3   -504315.102 5  24035094.203    24035108.352           5.500
         6.000
  -3728699.112 5  -2893959.874 6  23032867.375    23032878.355          11.000
        12.250
   9209080.269 6   7176067.635 6  21929236.867    21929247.645          14.500
        14.000
 99  3  1 20  2 30.0000000  0  6G 2G 7G 4G 9G26G27
   1962208.550 7   1530943.342 6  21509960.281    21509970.305          20.750
        18.250
  -5919488.899 6  -4600105.200 6  20455664.391    20455673.684          19.500
        20.000
  -3253503.942 5  -2504809.032 5  23548586.844    23548600.273           8.000
         9.250
   -727271.034 4   -538786.287 5  24026676.570    24026690.125           6.250
         5.750
  -3711699.234 5  -2880713.225 5  23036102.273    23036113.207          10.500
        11.250
   9255895.801 6   7212547.209 6  21938145.492    21938156.578          14.500
        14.000
 99  3  1 20  2 45.0000000  0  6G 2G 7G 4G 9G26G27
   1975745.963 7   1541491.971 6  21512536.258    21512546.297          20.500
        18.250
  -5911306.062 6  -4593728.965 6  20457221.633    20457230.789          19.500
        20.000
  -3301491.373 5  -2542201.750 5  23539455.406    23539468.621           8.000
         9.500
   -771474.676 5   -573230.594 5  24018265.148    24018278.898           7.500
         7.000
  -3694587.082 5  -2867379.105 5  23039358.484    23039369.590          10.750
        11.500
   9302808.824 6   7249102.746 6  21947072.836    21947083.801          14.750
        13.750
 99  3  1 20  3  0.0000000  0  6G 2G 7G 4G 9G26G27
   1989326.814 7   1552074.450 6  21515120.578    21515130.578          20.500
        18.000
  -5903017.825 6  -4587270.598 6  20458798.750    20458807.969          19.500
        20.250
  -3349446.617 5  -2579569.394 5  23530329.469    23530343.281           8.250
         9.500
   -815643.559 4   -607647.772 5  24009859.664    24009873.875           6.750
         7.500
  -3677360.745 5  -2853956.001 6  23042636.953    23042647.945          11.250
        12.000
   9349819.064 6   7285734.041 6  21956018.781    21956029.387          14.750
        13.500
 99  3  1 20  3 15.0000000  0  6G 2G 7G 4G 9G26G27
   2002953.623 7   1562692.740 6  21517713.797    21517723.695          20.500
        18.250
  -5894623.231 6  -4580729.357 6  20460396.258    20460405.371          19.500
        20.250
  -3397367.095 5  -2616909.940 5  23521210.406    23521223.801           8.000
         9.500
   -859775.668 3   -642036.276 5  24001460.820    24001475.199           6.000
         6.750
  -3660020.013 5  -2840443.769 6  23045936.492    23045947.645          10.750
        12.500
   9396925.880 6   7322440.594 6  21964983.070    21964993.605          14.500
        13.250
 99  3  1 20  3 30.0000000  0  6G 2G 7G 4G 9G26G27
   2016623.600 7   1573344.668 6  21520315.078    21520325.016          20.500
        18.250
  -5886125.397 6  -4574107.669 6  20462013.281    20462022.484          19.750
        20.250
  -3445255.658 5  -2654225.625 5  23512097.500    23512110.934           8.000
         9.500
   -903876.670 4   -676400.590 5  23993069.602    23993082.219           7.250
         5.750
  -3642567.912 5  -2826844.771 6  23049257.430    23049268.844          10.750
        12.750
   9444129.111 6   7359222.263 6  21973965.242    21973976.059          14.500
        13.250
 99  3  1 20  3 45.0000000  0  6G 2G 7G 4G 9G26G27
   2030334.458 7   1584028.453 6  21522924.063    21522934.004          20.500
        18.250
  -5877526.111 6  -4567406.926 6  20463649.547    20463658.707          19.500
        20.500
  -3493114.679 5  -2691518.294 5  23502990.500    23503003.594           8.000
         9.750
   -947950.483 5   -710743.775 5  23984682.211    23984695.844           7.500
         6.000
  -3625004.677 5  -2813159.170 6  23052600.008    23052611.281          11.750
        13.000
   9491429.977 6   7396080.013 6  21982966.344    21982977.266          14.250
        13.000
 99  3  1 20  4  0.0000000  0  6G 2G 7G 4G 9G26G27
   2044088.735 7   1594746.066 6  21525541.547    21525551.520          20.750
        18.250
  -5868824.478 6  -4560626.432 6  20465305.477    20465314.699          19.500
        20.500
  -3540944.974 5  -2728788.575 5  23493887.969    23493901.922           8.000
         9.750
   -991994.621 4   -745063.770 5  23976300.797    23976315.090           6.750
         6.750
  -3607325.982 6  -2799383.607 6  23055964.430    23055975.344          12.750
        12.250
   9538828.979 6   7433014.241 6  21991986.273    21991997.039          14.250
        13.000
 99  3  1 20  4 15.0000000  0  6G 2G 7G 4G 9G26G27
   2057891.481 7   1605501.448 6  21528168.117    21528178.117          21.000
        18.250
  -5860021.260 6  -4553766.781 6  20466980.672    20466990.102          19.250
        20.500
  -3588745.974 5  -2766036.038 5  23484792.070    23484805.352           8.000
         9.500
  -1036006.492 4   -779358.619 5  23967925.156    23967939.676           6.500
         7.750
  -3589527.430 6  -2785514.606 5  23059351.281    23059361.652          12.500
        10.750
   9586326.772 6   7470025.440 6  22001024.844    22001035.477          14.250
        13.000
 99  3  1 20  4 30.0000000  0  6G 2G 7G 4G 9G26G27
   2071742.015 7   1616294.072 6  21530803.758    21530813.691          21.000
        18.500
  -5851120.077 6  -4546830.792 6  20468674.516    20468683.922          19.250
        20.500
  -3636519.669 5  -2803262.202 5  23475700.703    23475714.352           7.750
         9.750
  -1079985.298 4   -813627.680 5  23959556.078    23959570.590           6.750
         7.750
  -3571609.150 5  -2771552.314 5  23062760.703    23062771.180          11.750
         9.750
   9633921.915 6   7507112.505 6  22010082.008    22010092.723          14.250
        13.000
 99  3  1 20  4 45.0000000  0  6G 2G 7G 4G 9G26G27
   2085639.717 7   1627123.446 6  21533448.453    21533458.445          21.000
        18.500
  -5842120.879 6  -4539818.428 6  20470387.016    20470396.367          19.000
        20.500
  -3684265.578 5  -2840466.731 5  23466614.813    23466628.461           7.750
         9.750
  -1123928.781 5   -847869.246 5  23951194.500    23951208.547           7.750
         7.250
  -3553567.845 6  -2757494.175 5  23066193.898    23066204.934          12.250
        11.000
   9681613.083 6   7544274.389 6  22019157.336    22019168.250          14.250
        13.000
 99  3  1 20  5  0.0000000  0  6G 2G 7G 4G 9G26G27
   2099586.962 7   1637991.426 6  21536102.594    21536112.547          21.000
        18.500
  -5833020.223 6  -4532727.000 6  20472118.781    20472128.137          19.250
        20.500
  -3731983.021 5  -2877649.077 5  23457534.547    23457548.410           7.500
         9.750
  -1167834.575 5   -882081.483 5  23942839.219    23942852.965           7.750
         6.500
  -3535399.623 6  -2743337.150 6  23069651.617    23069662.488          13.000
        12.500
   9729400.775 6   7581511.487 6  22028250.953    22028261.906          14.250
        13.000
 99  3  1 20  5 15.0000000  0  6G 2G 7G 4G 9G26G27
   2113581.806 7   1648896.497 6  21538765.750    21538775.773          21.000
        18.500
  -5823819.700 6  -4525557.758 6  20473869.695    20473878.984          19.250
        20.500
  -3779674.511 5  -2914811.198 5  23448459.031    23448472.504           7.500
         9.500
  -1211701.604 4   -916263.484 5  23934491.125    23934505.168           7.000
         6.500
  -3517103.273 6  -2729080.275 6  23073132.945    23073144.301          12.250
        13.250
   9777283.894 6   7618822.951 6  22037362.867    22037373.863          14.250
        13.250
 99  3  1 20  5 30.0000000  0  6G 2G 7G 4G 9G26G27
   2127623.655 7   1659838.191 6  21541437.852    21541447.852          21.000
        18.500
  -5814520.953 6  -4518311.978 6  20475639.133    20475648.465          19.250
        20.500
  -3827339.356 5  -2951952.554 5  23439388.695    23439402.148           7.500
         9.250
  -1255529.148 5   -950414.721 5  23926151.578    23926165.273           7.750
         7.000
  -3498679.615 5  -2714724.210 6  23076638.477    23076650.125          10.250
        13.500
   9825264.711 6   7656210.531 6  22046493.414    22046504.434          14.000
        13.250
 99  3  1 20  5 45.0000000  0  6G 2G 7G 4G 9G26G27
   2141710.347 7   1670814.827 6  21544118.320    21544128.477          21.000
        18.500
  -5805128.225 6  -4510992.965 6  20477426.516    20477435.832          19.250
        20.750
  -3874979.949 4  -2989075.011 5  23430322.641    23430336.477           7.250
         9.500
  -1299321.295 4   -984538.382 5  23917817.273    23917831.855           7.250
         7.250
  -3480131.878 5  -2700271.488 6  23080167.945    23080179.684           9.250
        13.750
   9873340.391 6   7693672.032 6  22055641.906    22055653.129          14.000
        13.500
 99  3  1 20  6  0.0000000  0  6G 2G 7G 4G 9G26G27
   2155843.850 7   1681827.944 6  21546807.711    21546817.762          21.000
        18.500
  -5795640.174 6  -4503599.677 6  20479232.031    20479241.320          19.250
        20.750
  -3922594.834 4  -3026177.435 5  23421261.852    23421275.551           7.000
         9.250
  -1343075.067 4  -1018632.125 5  23909491.141    23909505.840           6.500
         7.750
  -3461459.842 5  -2685721.900 6  23083720.977    23083732.984           9.750
        13.750
   9921510.418 6   7731207.051 6  22064808.469    22064819.645          14.000
        13.500
 99  3  1 20  6 15.0000000  0  6G 2G 7G 4G 9G26G27
   2170024.829 7   1692878.055 6  21549506.555    21549516.566          20.750
        18.500
  -5786055.038 6  -4496130.737 6  20481055.922    20481065.297          19.250
        21.000
  -3970179.431 4  -3063256.270 5  23412206.906    23412220.266           6.750
         9.000
  -1386784.786 4  -1052691.507 5  23901173.492    23901188.254           6.750
         8.000
  -3442664.766 5  -2671076.432 6  23087297.828    23087309.641          10.750
        13.250
   9969775.038 6   7768815.764 6  22073993.000    22074004.223          14.000
        13.500
 99  3  1 20  6 30.0000000  0  6G 2G 7G 4G 9G26G27
   2184253.225 7   1703965.114 6  21552214.078    21552224.055          20.500
        18.250
  -5776371.200 6  -4488584.887 6  20482898.656    20482907.926          19.250
        21.000
  -4017731.732 4  -3100309.926 5  23403157.883    23403171.164           6.750
         9.000
  -1430446.936 4  -1086713.866 5  23892864.805    23892879.293           7.000
         7.500
  -3423750.811 5  -2656338.301 6  23090897.219    23090908.629          11.250
        12.250
  10018134.040 6   7806498.023 6  22083195.602    22083206.707          14.250
        13.500
 99  3  1 20  6 45.0000000  0  6G 2G 7G 4G 9G26G27
   2198525.739 7   1715086.556 6  21554930.047    21554940.051          20.750
        18.250
  -5766586.177 6  -4480960.194 6  20484760.813    20484770.164          19.250
        21.000
  -4065254.009 4  -3137340.181 5  23394114.406    23394128.242           6.750
         9.000
  -1474062.273 4  -1120699.758 5  23884565.086    23884579.652           7.000
         7.500
  -3404720.564 5  -2641509.555 5  23094518.266    23094529.277          10.000
        11.000
  10066587.966 6   7844254.257 6  22092416.094    22092427.270          14.250
        14.000
 99  3  1 20  7  0.0000000  0  6G 2G 7G 4G 9G26G27
   2212840.318 7   1726240.767 6  21557653.961    21557663.852          20.750
        18.250
  -5756700.074 6  -4473256.734 6  20486642.125    20486651.469          19.500
        21.000
  -4112748.316 4  -3174348.649 5  23385076.711    23385090.133           6.750
         9.000
  -1517635.524 4  -1154652.803 5  23876273.313    23876287.723           7.250
         7.500
  -3385576.509 5  -2626592.148 5  23098160.914    23098172.324           8.750
        10.750
  10115134.912 6   7882082.973 6  22101654.414    22101665.625          14.250
        14.000
 99  3  1 20  7 15.0000000  0  6G 2G 7G 4G 9G26G27
   2227195.251 7   1737426.432 6  21560385.695    21560395.566          20.750
        18.250
  -5746712.027 6  -4465473.842 6  20488542.852    20488552.145          19.500
        21.000
  -4160213.488 4  -3211334.417 5  23376044.359    23376057.770           7.000
         8.750
  -1561168.025 5  -1188574.136 5  23867989.859    23868003.480           7.750
         7.250
  -3366320.637 5  -2611587.608 5  23101825.984    23101836.988          10.500
        11.000
  10163774.365 6   7919983.766 6  22110910.234    22110921.430          14.250
        13.750
 99  3  1 20  7 30.0000000  0  6G 2G 7G 4G 9G26G27
   2241590.467 7   1748643.483 6  21563125.047    21563134.859          20.750
        18.250
  -5736623.848 6  -4457612.927 6  20490462.633    20490472.027          19.250
        21.000
  -4207649.723 4  -3248297.633 5  23367017.570    23367030.625           7.000
         8.500
  -1604659.417 4  -1222463.441 5  23859713.117    23859727.172           7.000
         7.250
  -3346954.984 6  -2596497.509 5  23105511.719    23105522.270          13.250
        11.000
  10212504.425 6   7957955.168 6  22120183.297    22120194.633          14.250
        13.750
 99  3  1 20  7 45.0000000  0  6G 2G 7G 4G 9G26G27
   2256025.092 7   1759891.238 6  21565871.859    21565881.688          21.000
        18.250
  -5726433.652 6  -4449672.524 6  20492401.563    20492411.059          19.250
        21.000
  -4255058.445 4  -3285239.415 5  23357995.836    23358008.797           7.250
         8.250
  -1648110.998 4  -1256321.697 5  23851444.570    23851458.191           7.000
         6.750
  -3327480.057 6  -2581322.227 5  23109217.734    23109228.484          13.500
        11.250
  10261326.131 6   7995997.983 6  22129474.016    22129485.238          14.250
        13.750
 99  3  1 20  8  0.0000000  0  6G 2G 7G 4G 9G26G27
   2270498.842 7   1771169.487 6  21568626.242    21568635.938          21.000
        18.250
  -5716139.068 6  -4441650.770 6  20494360.508    20494369.887          19.000
        21.000
  -4302440.024 5  -3322160.041 5  23348979.500    23348992.426           7.500
         8.500
  -1691520.626 5  -1290147.295 5  23843184.336    23843197.230           8.000
         6.500
  -3307896.745 5  -2566062.504 5  23112944.344    23112954.883          11.750
        11.750
  10310240.319 6   8034112.871 6  22138782.023    22138793.184          14.000
        13.500
 99  3  1 20  8 15.0000000  0  6G 2G 7G 4G 9G26G27
   2285010.974 7   1782477.645 6  21571387.656    21571397.551          21.000
        18.250
  -5705738.311 6  -4433546.294 6  20496339.688    20496349.035          19.250
        20.750
  -4349794.413 5  -3359059.486 5  23339968.133    23339981.195           7.500
         8.500
  -1734884.919 4  -1323937.563 5  23834931.805    23834945.793           6.750
         7.500
  -3288206.198 5  -2550719.262 6  23116690.703    23116702.301           9.500
        12.500
  10359247.712 6   8072300.373 6  22148107.797    22148119.105          14.000
        13.500
 99  3  1 20  8 30.0000000  0  6G 2G 7G 4G 9G26G27
   2299566.974 7   1793819.986 6  21574157.602    21574167.445          21.000
        18.250
  -5695230.119 6  -4425358.099 6  20498339.328    20498348.695          19.000
        20.500
  -4397119.477 5  -3395936.099 5  23330962.766    23330975.309           8.000
         8.250
  -1778200.902 4  -1357690.138 5  23826689.148    23826703.602           6.750
         8.750
  -3268405.270 5  -2535290.044 6  23120458.219    23120470.184           7.500
        12.750
  10408350.673 6   8110562.350 6  22157451.883    22157463.164          13.750
        13.500
 99  3  1 20  8 45.0000000  0  6G 2G 7G 4G 9G26G27
   2314168.195 7   1805197.561 6  21576936.016    21576945.957          21.000
        18.500
  -5684615.145 6  -4417086.697 6  20500359.422    20500368.723          19.000
        20.500
  -4444416.390 5  -3432790.762 5  23321962.070    23321974.844           8.000
         8.250
  -1821470.822 5  -1391406.817 5  23818455.469    23818469.227           7.500
         8.500
  -3248491.575 4  -2519772.957 6  23124247.547    23124259.617           7.250
        12.250
  10457551.673 6   8148900.707 6  22166814.695    22166825.891          13.750
        13.250
 99  3  1 20  9  0.0000000  0  6G 2G 7G 4G 9G26G27
   2328816.227 7   1816611.619 6  21579723.484    21579733.465          20.750
        18.500
  -5673894.565 6  -4408733.009 6  20502399.547    20502408.746          19.000
        20.500
  -4491682.712 5  -3469621.586 5  23312967.750    23312980.320           8.500
         8.500
  -1864694.259 5  -1425087.325 5  23810230.273    23810243.273           7.750
         7.500
  -3228460.272 5  -2504164.204 5  23128059.734    23128071.324           9.250
        11.500
  10506852.846 6   8187317.131 6  22176196.383    22176207.699          13.500
        13.250
 99  3  1 20  9 15.0000000  0  6G 2G 7G 4G 9G26G27
   2343512.558 7   1828063.304 6  21582520.078    21582530.211          20.500
        18.500
  -5663070.566 6  -4400298.733 6  20504459.258    20504468.555          19.000
        20.750
  -4538913.191 5  -3506424.484 5  23303980.375    23303992.867           9.000
         8.750
  -1907868.496 5  -1458729.494 5  23802013.875    23802027.676           7.500
         7.500
  -3208311.872 5  -2488464.168 5  23131894.414    23131905.480          11.500
        11.250
  10556253.268 6   8225810.895 6  22185596.922    22185608.215          13.250
        13.250
 99  3  1 20  9 30.0000000  0  6G 2G 7G 4G 9G26G27
   2358257.246 7   1839552.667 6  21585325.961    21585336.074          20.750
        18.500
  -5652145.396 6  -4391785.626 6  20506538.156    20506547.586          19.000
        21.000
  -4586110.445 5  -3543201.492 5  23294998.742    23295011.391           9.000
         8.750
  -1950992.589 4  -1492332.554 5  23793806.844    23793821.520           6.500
         7.750
  -3188047.724 6  -2472673.939 5  23135750.750    23135761.852          12.250
        11.750
  10605752.427 6   8264381.594 6  22195016.344    22195027.875          13.000
        13.250
 99  3  1 20  9 45.0000000  0  6G 2G 7G 4G 9G26G27
   2373048.418 7   1851078.263 6  21588140.594    21588150.836          20.500
        18.500
  -5641124.387 6  -4383197.835 6  20508635.359    20508644.766          19.000
        21.000
  -4633279.385 5  -3579956.434 5  23286022.781    23286035.492           9.250
         9.000
  -1994071.010 4  -1525900.034 5  23785609.672    23785623.461           7.000
         7.250
  -3167672.055 5  -2456796.827 6  23139627.891    23139639.359          11.000
        12.500
  10655348.571 6   8303027.862 6  22204454.094    22204465.547          12.750
        13.000
 99  3  1 20 10  0.0000000  0  6G 2G 7G 4G 9G26G27
   2387891.902 7   1862644.618 6  21590964.984    21590975.199          20.500
        18.500
  -5630004.117 6  -4374532.689 6  20510751.414    20510760.910          19.250
        21.250
  -4680413.285 5  -3616684.084 5  23277053.406    23277065.949           9.500
         9.000
  -2037101.577 4  -1559430.259 5  23777420.180    23777435.023           6.250
         7.750
  -3147182.255 5  -2440830.822 6  23143526.547    23143538.504          10.000
        12.750
  10705044.450 6   8341751.845 6  22213910.805    22213922.492          12.500
        13.000
 99  3  1 20 10 15.0000000  0  6G 2G 7G 4G 9G26G27
   2402787.735 7   1874251.758 6  21593799.664    21593809.840          20.500
        18.250
  -5618787.397 6  -4365792.398 6  20512886.047    20512895.402          19.250
        21.000
  -4727510.046 5  -3653382.792 5  23268091.180    23268103.801           9.500
         9.250
  -2080084.974 4  -1592923.681 5  23769241.594    23769255.730           6.750
         8.750
  -3126579.777 5  -2424777.006 6  23147447.781    23147459.113          11.250
        12.000
  10754835.016 6   8380549.603 6  22223385.734    22223397.359          12.500
        13.000
 99  3  1 20 10 30.0000000  4  1
1.627                                                       COMMENT
 99  3  1 20 10 30.0000000  0  6G 2G 7G 4G 9G26G27
   2417737.294 7   1885900.771 6  21596644.500    21596654.605          20.500
        18.250
  -5607477.084 6  -4356979.174 6  20515038.391    20515047.754          19.250
        21.000
  -4774568.387 5  -3690051.548 5  23259136.188    23259148.805           9.750
         9.250
  -2123020.454 4  -1626379.770 5  23761071.227    23761085.348           7.000
         9.000
  -3105861.927 5  -2408633.257 5  23151390.195    23151401.527          11.750
        10.250
  10804719.126 6   8419420.261 6  22232878.570    22232890.098          12.500
        13.000
 99  3  1 20 10 45.0000000  0  6G 2G 7G 4G 9G26G27
   2432742.355 7   1897593.028 6  21599499.781    21599509.883          20.500
        18.250
  -5596069.692 6  -4348090.304 6  20517209.078    20517218.449          19.250
        21.000
  -4821584.525 5  -3726687.435 5  23250189.227    23250201.934           9.750
         9.250
  -2165903.341 5  -1659794.878 5  23752911.555    23752924.980           7.500
         9.250
  -3085023.299 5  -2392395.381 5  23155355.531    23155366.309          11.500
         8.250
  10854699.855 6   8458366.202 6  22242389.461    22242401.273          12.250
        13.000
 99  3  1 20 11  0.0000000  4  1
1.627                                                       COMMENT
 99  3  1 20 11  0.0000000  0  6G 2G 7G 4G 9G26G27
   2447796.159 7   1909323.266 6  21602364.609    21602374.559          20.500
        18.250
  -5584569.509 6  -4339129.126 6  20519397.469    20519406.762          19.500
        21.000
  -4868560.304 5  -3763291.870 5  23241250.242    23241262.523           9.750
         9.500
  -2208737.835 5  -1693172.303 5  23744760.539    23744773.559           8.750
         9.000
  -3064068.607 5  -2376067.041 5  23159342.891    23159353.211          10.750
         7.500
  10904771.811 6   8497383.226 6  22251918.000    22251929.680          12.250
        13.000
 99  3  1 20 11 15.0000000  0  6G 2G 7G 4G 9G26G27
   2462899.705 7   1921092.261 6  21605238.711    21605248.777          20.500
        18.250
  -5572975.148 6  -4330094.571 6  20521603.898    20521613.105          19.500
        21.000
  -4915493.460 5  -3799863.089 5  23232318.773    23232331.602           9.750
         9.750
  -2251521.740 5  -1726510.313 5  23736618.188    23736631.348           7.500
         8.250
  -3042998.321 5  -2359648.642 5  23163352.336    23163363.180          10.000
         8.250
  10954933.570 6   8536470.220 6  22261463.547    22261475.137          12.250
        12.750
 99  3  1 20 11 30.0000000  0  6G 2G 7G 4G 9G26G27
   2478053.132 7   1932900.130 6  21608122.289    21608132.277          20.250
        18.250
  -5561286.866 6  -4320986.826 6  20523828.148    20523837.387          19.500
        21.000
  -4962388.143 5  -3836404.332 5  23223395.102    23223407.773           9.750
        10.000
  -2294257.618 4  -1759810.875 5  23728485.125    23728498.535           7.000
         7.750
  -3021815.149 5  -2343142.307 5  23167383.156    23167394.973          10.250
        10.000
  11005183.384 6   8575625.840 6  22271025.625    22271037.535          12.250
        12.750
 99  3  1 20 11 45.0000000  0  6G 2G 7G 4G 9G26G27
   2493256.186 7   1944746.667 6  21611015.250    21611025.371          20.250
        18.000
  -5549505.075 6  -4311806.219 6  20526070.148    20526079.441          19.500
        21.000
  -5009246.308 5  -3872917.110 5  23214478.125    23214490.965           9.500
        10.000
  -2336948.186 5  -1793076.146 5  23720361.820    23720374.648           7.750
         7.500
  -3000518.013 5  -2326547.191 5  23171436.102    23171447.801          10.750
        11.000
  11055520.883 6   8614849.786 6  22280604.813    22280616.574          12.250
        12.750
 99  3  1 20 12  0.0000000  0  6G 2G 7G 4G 9G26G27
   2508504.100 7   1956628.155 6  21613916.797    21613926.879          20.250
        18.000
  -5537632.084 6  -4302554.549 6  20528329.508    20528338.988          19.500
        21.250
  -5056068.676 5  -3909401.994 5  23205568.094    23205580.855           9.500
        10.500
  -2379598.251 5  -1826309.882 5  23712245.742    23712259.051           8.000
         8.250
  -2979110.508 5  -2309866.057 5  23175510.172    23175521.711          11.250
        11.500
  11105942.120 6   8654138.982 6  22290199.922    22290211.500          12.500
        13.000
 99  3  1 20 12 15.0000000  0  6G 2G 7G 4G 9G26G27
   2523798.094 7   1968545.555 6  21616827.180    21616837.172          20.250
        18.000
  -5525667.857 6  -4293231.777 6  20530606.227    20530615.633          19.500
        21.500
  -5102853.261 5  -3945857.450 5  23196665.094    23196677.852           9.500
        10.750
  -2422205.643 5  -1859510.316 5  23704137.453    23704151.859           7.750
         9.500
  -2957590.813 5  -2293097.503 5  23179605.359    23179616.848          11.000
        11.750
  11156445.969 6   8693492.548 6  22299810.453    22299822.199          12.500
        13.000
 99  3  1 20 12 30.0000000  0  6G 2G 7G 4G 9G26G27
   2539138.045 7   1980498.761 6  21619746.203    21619756.270          20.000
        18.000
  -5513609.437 6  -4283835.613 6  20532900.789    20532910.383          19.250
        21.500
  -5149598.155 5  -3982281.977 5  23187769.602    23187782.555           9.000
        10.750
  -2464766.570 5  -1892674.564 5  23696038.742    23696052.590           8.250
         9.750
  -2935953.949 5  -2276237.660 6  23183722.188    23183734.414           9.750
        12.250
  11207036.493 6   8732913.650 6  22309437.508    22309449.113          12.500
        12.750
 99  3  1 20 12 45.0000000  0  6G 2G 7G 4G 9G26G27
   2554524.603 7   1992488.295 6  21622674.063    21622684.098          20.000
        18.000
  -5501455.248 6  -4274364.817 6  20535213.516    20535222.945          19.250
        21.500
  -5196303.744 5  -4018675.864 5  23178881.930    23178894.699           8.750
        10.750
  -2507280.245 4  -1925801.977 5  23687947.234    23687961.461           6.750
         8.750
  -2914202.040 5  -2259288.162 6  23187861.430    23187873.629          10.000
        12.500
  11257715.280 6   8772403.542 6  22319081.484    22319093.090          12.750
        12.750
 99  3  1 20 13  0.0000000  0  6G 2G 7G 4G 9G26G27
   2569954.121 7   2004511.290 6  21625610.305    21625620.434          20.000
        18.000
  -5489205.287 6  -4264819.399 6  20537544.578    20537554.168          19.250
        21.500
  -5242971.814 5  -4055040.508 5  23170001.102    23170014.129           8.750
        11.000
  -2549751.590 5  -1958896.414 5  23679866.469    23679879.590           7.750
         8.250
  -2892339.814 5  -2242252.714 6  23192022.125    23192034.133          11.000
        12.500
  11308479.784 6   8811960.218 6  22328741.883    22328753.504          12.750
        12.750
 99  3  1 20 13 15.0000000  0  6G 2G 7G 4G 9G26G27
   2585426.052 7   2016567.347 6  21628554.484    21628564.500          20.000
        17.750
  -5476859.652 6  -4255199.425 6  20539894.055    20539903.480          19.250
        21.500
  -5289604.294 5  -4091377.441 5  23161127.164    23161140.199           8.250
        11.000
  -2592186.108 5  -1991962.169 5  23671791.867    23671804.773           8.750
         9.000
  -2870371.720 5  -2225134.758 5  23196202.805    23196214.371          11.250
        11.750
  11359326.756 6   8851581.152 6  22338417.766    22338429.355          12.750
        12.750
 99  3  1 20 13 30.0000000  0  6G 2G 7G 4G 9G26G27
   2600942.853 7   2028658.352 6  21631507.328    21631517.305          20.000
        17.750
  -5464415.319 6  -4245502.546 6  20542262.250    20542271.516          19.500
        21.250
  -5336200.087 5  -4127685.770 5  23152260.031    23152273.293           8.250
        11.000
  -2634580.734 5  -2024996.843 5  23663724.508    23663737.367           9.000
         9.000
  -2848296.950 5  -2207933.675 5  23200403.570    23200415.086          11.250
        11.750
  11410258.233 6   8891267.927 6  22348109.586    22348121.223          13.000
        12.500
 99  3  1 20 13 45.0000000  0  6G 2G 7G 4G 9G26G27
   2616504.919 7   2040784.639 6  21634468.695    21634478.777          20.000
        17.750
  -5451872.445 6  -4235728.884 6  20544649.211    20544658.461          19.500
        21.250
  -5382757.555 5  -4163964.247 5  23143400.289    23143413.449           8.000
        11.000
  -2676935.574 5  -2058000.520 5  23655664.383    23655677.020           8.750
         8.500
  -2826115.063 5  -2190649.130 5  23204624.547    23204636.082          11.500
        11.750
  11461274.742 6   8931020.965 6  22357817.859    22357829.316          13.000
        12.250
 99  3  1 20 14  0.0000000  0  6G 2G 7G 4G 9G26G27
   2632110.385 7   2052944.743 6  21637438.305    21637448.262          20.000
        18.000
  -5439230.859 6  -4225878.298 6  20547054.727    20547064.055          19.500
        21.500
  -5429272.577 5  -4200209.643 5  23134548.789    23134561.992           8.250
        11.250
  -2719248.099 5  -2090971.204 5  23647612.406    23647625.281           8.750
         8.750
  -2803825.782 6  -2173280.893 6  23208866.109    23208877.715          12.000
        12.250
  11512374.528 6   8970838.889 6  22367541.945    22367553.652          13.000
        12.500
 99  3  1 20 14 15.0000000  0  6G 2G 7G 4G 9G26G27
   2647763.121 6   2065141.678 6  21640416.898    21640426.941          19.750
        17.750
  -5426491.188 6  -4215951.281 6  20549478.992    20549488.313          19.500
        21.250
  -5475744.191 5  -4236421.201 5  23125705.508    23125718.688           8.250
        11.000
  -2761514.090 5  -2123905.638 5  23639569.133    23639582.035           9.000
         8.750
  -2781431.174 6  -2155830.590 6  23213127.703    23213139.164          12.250
        12.000
  11563555.863 6   9010720.353 6  22377281.516    22377293.285          13.000
        12.250
 99  3  1 20 14 30.0000000  0  6G 2G 7G 4G 9G26G27
   2663460.899 7   2077373.711 6  21643404.070    21643414.027          20.000
        17.750
  -5413654.111 6  -4205948.366 6  20551921.773    20551931.219          19.500
        21.250
  -5522172.954 5  -4272599.392 5  23116870.344    23116883.234           8.250
        10.750
  -2803731.354 5  -2156802.113 5  23631535.766    23631547.766           9.500
         8.000
  -2758932.380 5  -2138299.083 5  23217409.164    23217420.598          11.500
        11.750
  11614818.253 6   9050664.985 6  22387036.656    22387048.055          13.000
        12.250
 99  3  1 20 14 45.0000000  0  6G 2G 7G 4G 9G26G27
   2679204.407 7   2089641.384 6  21646400.047    21646409.992          20.000
        17.750
  -5400717.182 6  -4195867.641 6  20554383.539    20554392.957          19.500
        21.250
  -5568558.393 5  -4308743.823 5  23108043.336    23108056.383           8.250
        10.750
  -2845898.336 5  -2189659.409 5  23623511.539    23623523.992           9.500
         8.750
  -2736330.909 5  -2120687.573 5  23221709.906    23221721.520          10.000
        11.250
  11666162.468 6   9090673.379 6  22396807.039    22396818.723          13.000
        12.250
 99  3  1 20 15  0.0000000  0  6G 2G 7G 4G 9G26G27
   2694993.292 7   2101944.415 6  21649404.672    21649414.648          20.000
        17.750
  -5387681.223 6  -4185709.746 6  20556864.219    20556873.668          19.500
        21.250
  -5614902.753 5  -4344856.237 5  23099224.609    23099237.156           8.750
        10.500
  -2888015.338 5  -2222477.741 5  23615497.172    23615509.379           9.500
         9.000
  -2713628.911 5  -2102997.738 5  23226029.641    23226041.668           9.000
        11.500
  11717586.277 6   9130743.801 6  22406592.867    22406604.430          13.000
        12.250
 99  3  1 20 15 15.0000000  0  6G 2G 7G 4G 9G26G27
   2710826.591 7   2114282.058 6  21652417.578    21652427.465          20.000
        17.750
  -5374550.365 6  -4175477.899 6  20559362.992    20559372.281          19.500
        21.000
  -5661209.173 5  -4380939.090 5  23090412.625    23090425.477           8.750
        10.500
  -2930085.442 5  -2255259.548 5  23607490.727    23607503.090           9.000
         8.250
  -2690826.299 5  -2085229.521 5  23230368.648    23230380.832           8.000
        11.500
  11769088.069 6   9170874.982 6  22416393.359    22416405.086          12.750
        12.250
 99  3  1 20 15 30.0000000  0  6G 2G 7G 4G 9G26G27
   2726708.023 7   2126657.201 6  21655439.750    21655449.625          20.000
        17.750
  -5361326.704 6  -4165173.749 6  20561879.484    20561888.586          19.750
        21.000
  -5707475.242 5  -4416990.515 5  23081608.422    23081621.199           9.000
        10.250
  -2972103.548 5  -2288000.836 5  23599495.039    23599507.391           8.750
         8.750
  -2667918.403 5  -2067379.266 5  23234728.078    23234740.109           8.500
        11.750
  11820671.119 6   9211069.465 6  22426209.234    22426220.883          12.500
        12.250
 99  3  1 20 15 45.0000000  0  6G 2G 7G 4G 9G26G27
   2742637.528 7   2139069.807 6  21658471.031    21658480.848          20.250
        18.000
  -5348012.659 6  -4154799.165 6  20564413.016    20564421.895          19.750
        20.750
  -5753699.498 5  -4453009.347 5  23072812.273    23072825.102           9.250
        10.250
  -3014067.797 5  -2320700.139 5  23591509.727    23591522.328           9.250
         9.500
  -2644903.296 5  -2049445.476 6  23239108.023    23239119.832           9.750
        12.000
  11872338.105 6   9251329.357 6  22436041.273    22436053.102          12.500
        12.250
 99  3  1 20 16  0.0000000  0  6G 2G 7G 4G 9G26G27
   2758620.342 7   2151523.949 6  21661512.578    21661522.484          20.250
        18.000
  -5334604.914 6  -4144351.565 6  20566964.336    20566973.258          19.500
        20.500
  -5799878.999 5  -4488993.314 5  23064024.508    23064037.172           9.500
        10.000
  -3055973.979 5  -2353354.208 5  23583535.242    23583547.910           9.250
         9.500
  -2621775.704 5  -2031424.002 5  23243509.359    23243521.113          11.000
        11.750
  11924091.281 6   9291656.418 6  22445889.461    22445901.426          12.250
        12.250
 99  3  1 20 16 15.0000000  0  6G 2G 7G 4G 9G26G27
   2774649.726 7   2164014.389 6  21664562.719    21664572.680          20.000
        17.750
  -5321112.860 6  -4133838.271 6  20569531.711    20569540.773          19.500
        20.750
  -5846023.684 5  -4524950.145 5  23055243.469    23055256.133           9.500
        10.000
  -3097829.389 5  -2385968.700 5  23575569.047    23575583.230           8.000
         9.750
  -2598544.852 5  -2013322.069 5  23247930.078    23247941.621          11.000
        11.250
  11975922.077 6   9332043.948 6  22455752.570    22455764.512          12.000
        12.250
 99  3  1 20 16 30.0000000  0  6G 2G 7G 4G 9G26G27
   2790724.301 7   2176540.034 6  21667621.555    21667631.477          20.000
        17.750
  -5307534.335 6  -4123257.599 6  20572115.516    20572124.668          19.250
        20.750
  -5892135.670 5  -4560881.512 5  23046468.445    23046481.207           9.750
        10.000
  -3139636.497 5  -2418545.549 5  23567614.328    23567626.863           8.750
         9.000
  -2575208.699 5  -1995138.075 5  23252370.563    23252381.926           9.750
        10.500
  12027834.194 5   9372494.861 6  22465631.289    22465643.305          11.750
        12.250
 99  3  1 20 16 45.0000000  0  6G 2G 7G 4G 9G26G27
   2806839.889 7   2189097.641 6  21670688.148    21670698.164          20.000
        18.000
  -5293869.166 6  -4112609.409 6  20574715.906    20574725.180          19.000
        21.000
  -5938215.883 5  -4596788.112 5  23037700.031    23037712.508          10.000
         9.750
  -3181397.707 5  -2451086.684 5  23559667.133    23559680.102           9.000
         8.750
  -2551766.408 5  -1976871.380 5  23256831.117    23256842.676           8.250
        10.000
  12079825.732 5   9413007.660 6  22475524.938    22475537.043          11.750
        12.250
 99  3  1 20 17  0.0000000  0  6G 2G 7G 4G 9G26G27
   2823001.789 7   2201691.330 6  21673763.570    21673773.508          20.000
        18.000
  -5280113.090 6  -4101890.384 6  20577333.602    20577342.875          19.250
        21.000
  -5984259.541 5  -4632666.240 5  23028938.086    23028950.512          10.000
         9.750
  -3223109.671 5  -2483589.417 5  23551729.453    23551742.895           9.000
         9.500
  -2528212.748 5  -1958517.939 5  23261313.242    23261324.996           7.750
        10.250
  12131900.521 5   9453585.322 6  22485434.422    22485446.605          11.750
        12.500
 99  3  1 20 17 15.0000000  0  6G 2G 7G 4G 9G26G27
   2839208.341 7   2214319.816 6  21676847.867    21676857.879          20.250
        18.000
  -5266270.208 6  -4091103.718 6  20579967.922    20579977.301          19.250
        21.250
  -6030268.274 5  -4668517.144 5  23020182.852    23020195.148          10.000
         9.750
  -3264773.356 5  -2516054.518 5  23543800.328    23543814.594           8.250
         9.250
  -2504548.821 5  -1940078.551 5  23265816.477    23265828.074           8.250
        10.500
  12184057.674 5   9494227.162 6  22495359.852    22495371.977          11.500
        12.250
 99  3  1 20 17 30.0000000  0  6G 2G 7G 4G 9G26G27
   2855461.016 7   2226984.245 6  21679940.586    21679950.480          20.250
        18.000
  -5252339.978 6  -4080248.990 6  20582618.750    20582628.172          19.250
        21.500
  -6076236.899 5  -4704336.808 5  23011435.281    23011447.605          10.000
         9.750
  -3306386.125 5  -2548479.955 5  23535882.352    23535895.523           8.750
         8.750
  -2480773.751 5  -1921552.562 5  23270340.977    23270352.535           9.250
        11.000
  12236299.152 5   9534934.728 6  22505301.039    22505313.070          11.500
        12.250
 99  3  1 20 17 45.0000000  0  6G 2G 7G 4G 9G26G27
   2871760.453 7   2239685.106 6  21683042.313    21683052.418          20.250
        18.000
  -5238321.175 6  -4069325.240 6  20585286.570    20585295.906          19.500
        21.500
  -6122163.445 5  -4740123.676 5  23002695.414    23002707.875          10.000
        10.000
  -3347945.937 5  -2580864.141 5  23527973.984    23527985.918           9.250
         8.000
  -2456890.063 5  -1902941.926 5  23274885.852    23274897.590           9.500
        11.500
  12288622.582 5   9575706.148 6  22515257.906    22515270.207          11.500
        12.250
 99  3  1 20 18  0.0000000  0  6G 2G 7G 4G 9G26G27
   2888104.475 7   2252420.711 6  21686152.492    21686162.555          20.250
        18.000
  -5224213.179 6  -4058331.990 6  20587971.172    20587980.504          19.500
        21.500
  -6168050.201 5  -4775879.527 5  22993963.672    22993976.078          10.000
        10.000
  -3389456.295 5  -2613209.812 5  23520074.586    23520087.059           9.000
         8.500
  -2432903.348 5  -1884251.019 5  23279450.484    23279462.309           9.750
        11.750
  12341021.914 5   9616536.704 6  22525229.438    22525241.480          11.750
        12.250
 99  3  1 20 18 15.0000000  0  6G 2G 7G 4G 9G26G27
   2904495.506 7   2265192.946 6  21689271.602    21689281.691          20.250
        18.000
  -5210013.446 6  -4047267.263 6  20590673.359    20590682.672          19.500
        21.500
  -6213894.225 5  -4811602.075 5  22985239.797    22985251.945           9.750
        10.500
  -3430914.601 5  -2645514.871 5  23512185.469    23512198.273           9.250
         9.500
  -2408814.516 5  -1865480.546 5  23284034.344    23284046.109           9.750
        11.750
  12393497.950 5   9657427.041 6  22535215.227    22535227.391          11.500
        12.000
 99  3  1 20 18 30.0000000  0  6G 2G 7G 4G 9G26G27
   2920934.585 7   2278002.618 6  21692399.875    21692409.863          20.250
        18.000
  -5195716.865 6  -4036127.067 6  20593393.891    20593403.152          19.500
        21.500
  -6259687.931 5  -4847285.421 5  22976525.320    22976537.891           9.750
        10.500
  -3472316.518 5  -2677776.018 5  23504306.656    23504318.750           9.250
         8.750
  -2384621.574 5  -1846628.947 5  23288638.328    23288649.977          10.000
        11.750
  12446057.349 5   9698382.337 5  22545217.227    22545229.160          11.500
        11.750
 99  3  1 20 18 45.0000000  0  6G 2G 7G 4G 9G26G27
   2937420.269 7   2290848.602 6  21695537.023    21695546.945          20.250
        18.000
  -5181324.013 6  -4024911.851 6  20596132.703    20596141.984          19.500
        21.500
  -6305429.355 5  -4882928.033 5  22967820.945    22967833.320           9.500
        10.750
  -3513660.701 5  -2709992.183 5  23496439.164    23496450.770           8.750
         7.750
  -2360327.460 5  -1827698.507 6  23293261.758    23293273.188          10.500
        12.000
  12498698.041 5   9739400.977 5  22555234.203    22555246.422          11.500
        11.750
 99  3  1 20 19  0.0000000  0  6G 2G 7G 4G 9G26G27
   2953954.391 7   2303732.334 6  21698683.383    21698693.344          20.250
        18.000
  -5166839.766 6  -4013625.418 6  20598888.938    20598898.219          19.250
        21.500
  -6351117.426 5  -4918529.043 5  22959126.961    22959139.289           9.500
        11.000
  -3554945.617 5  -2742162.168 5  23488582.844    23488594.418           9.000
         7.750
  -2335935.046 5  -1808691.465 6  23297903.336    23297915.055          10.000
        12.000
  12551417.158 5   9780480.729 5  22565266.406    22565278.520          11.250
        11.750
 99  3  1 20 19 15.0000000  0  6G 2G 7G 4G 9G26G27
   2970539.739 7   2316655.981 6  21701839.352    21701849.449          20.250
        17.750
  -5152265.073 6  -4002268.510 6  20601662.289    20601671.605          19.250
        21.500
  -6396751.052 5  -4954087.639 5  22950443.195    22950455.480           9.750
        11.000
  -3596169.744 5  -2774284.787 5  23480738.102    23480750.031           9.250
         8.250
  -2311443.529 5  -1789607.210 5  23302563.625    23302575.621           9.250
        11.750
  12604217.914 5   9821624.080 5  22575314.102    22575326.348          11.500
        11.750
 99  3  1 20 19 30.0000000  0  6G 2G 7G 4G 9G26G27
   2987180.950 7   2329623.151 6  21705006.086    21705016.066          20.000
        17.750
  -5137597.441 6  -3990839.180 6  20604453.508    20604462.762          19.250
        21.250
  -6442327.568 5  -4989601.749 5  22941770.008    22941782.617           9.500
        11.000
  -3637331.440 5  -2806358.751 5  23472904.875    23472917.605           9.000
         9.000
  -2286850.435 5  -1770443.805 5  23307243.727    23307255.574           9.000
        11.250
  12657102.828 5   9862833.028 5  22585378.023    22585390.023          11.500
        11.500
 99  3  1 20 19 45.0000000  0  6G 2G 7G 4G 9G26G27
   3003876.542 7   2342632.701 6  21708183.055    21708193.145          20.250
        17.750
  -5122835.958 6  -3979336.720 6  20607262.602    20607271.828          19.250
        21.500
  -6487846.905 5  -5025071.317 5  22933107.992    22933120.504           9.500
        11.000
  -3678433.795 5  -2838386.466 5  23465083.414    23465096.352           9.250
         9.500
  -2262157.406 5  -1751202.523 5  23311942.703    23311954.453           8.750
        10.750
  12710069.578 5   9904105.731 5  22595457.266    22595469.492          11.500
        11.500
 99  3  1 20 20  0.0000000  0  6G 2G 7G 4G 9G26G27
   3020622.652 7   2355681.616 6  21711369.844    21711379.875          20.250
        17.750
  -5107981.476 6  -3967761.793 6  20610089.156    20610098.496          19.000
        21.250
  -6533312.566 5  -5060499.047 5  22924456.141    22924468.703           9.750
        11.250
  -3719480.813 5  -2870371.049 5  23457270.930    23457284.805           8.000
         9.250
  -2237366.070 5  -1731884.621 5  23316659.914    23316672.285           8.500
        10.500
  12763116.300 5   9945440.745 5  22605551.766    22605564.047          11.500
        11.750
 99  3  1 20 20 15.0000000  0  6G 2G 7G 4G 9G26G27
   3037415.737 7   2368767.130 6  21714565.508    21714575.465          20.000
        17.750
  -5093036.151 6  -3956116.080 6  20612933.297    20612942.547          18.750
        21.250
  -6578726.391 5  -5095886.395 5  22915814.117    22915826.395           9.750
        11.250
  -3760476.418 5  -2902315.604 5  23449470.820    23449482.660           9.250
         8.500
  -2212476.439 5  -1712490.139 5  23321396.438    23321408.430           9.000
        11.000
  12816244.120 5   9986838.969 5  22615661.945    22615674.109          11.750
        11.500
 99  3  1 20 20 30.0000000  0  6G 2G 7G 4G 9G26G27
   3054256.555 7   2381889.842 6  21717770.227    21717780.262          20.000
        17.750
  -5077998.188 6  -3944398.184 6  20615794.828    20615804.156          18.750
        21.250
  -6624085.671 5  -5131231.227 5  22907182.734    22907194.805          10.000
        11.250
  -3801416.933 5  -2934217.215 5  23441680.141    23441692.840           9.500
         9.250
  -2187482.086 5  -1693014.072 6  23326152.836    23326164.934           9.250
        12.250
  12869459.326 5  10028305.278 5  22625788.430    22625800.539          11.750
        11.500
 99  3  1 20 20 45.0000000  0  6G 2G 7G 4G 9G26G27
   3071144.182 7   2395049.024 6  21720983.609    21720993.762          20.000
        17.750
  -5062868.865 6  -3932609.096 6  20618673.719    20618683.117          18.750
        21.250
  -6669393.217 5  -5166535.753 5  22898560.680    22898572.984          10.000
        11.250
  -3842304.279 5  -2966077.397 5  23433900.023    23433911.570          10.000
         8.750
  -2162381.567 5  -1673455.260 6  23330929.563    23330941.551           9.500
        13.250
  12922761.257 5  10069839.175 5  22635931.414    22635943.504          11.750
        11.500
 99  3  1 20 21  0.0000000  0  6G 2G 7G 4G 9G26G27
   3088078.522 7   2408244.614 6  21724206.133    21724216.223          20.000
        17.750
  -5047652.671 6  -3920752.314 6  20621569.211    20621578.672          18.750
        21.250
  -6714652.491 5  -5201802.659 5  22889948.141    22889960.523          10.500
        11.250
  -3883140.560 5  -2997897.829 5  23426128.125    23426140.020           9.250
         8.000
  -2137175.703 5  -1653814.393 6  23335725.891    23335738.148           9.500
        14.250
  12976145.913 5  10111437.515 5  22646090.180    22646102.438          11.750
        11.250
 99  3  1 20 21 15.0000000  0  6G 2G 7G 4G 9G26G27
   3105057.213 7   2421474.762 6  21727437.008    21727447.098          20.000
        17.750
  -5032350.028 6  -3908828.175 6  20624481.305    20624490.688          18.750
        21.250
  -6759866.315 5  -5237034.153 5  22881344.289    22881356.352          10.500
        11.000
  -3923928.786 5  -3029680.782 5  23418366.492    23418379.156           9.000
         9.000
  -2111862.543 5  -1634089.913 6  23340542.852    23340555.098           9.250
        14.000
  13029614.397 5  10153101.178 5  22656265.156    22656277.582          11.500
        11.500
 99  3  1 20 21 30.0000000  0  6G 2G 7G 4G 9G26G27
   3122075.902 7   2434736.072 6  21730675.609    21730685.707          20.000
        17.750
  -5016959.941 6  -3896835.890 6  20627409.938    20627419.184          19.000
        21.250
  -6805035.346 5  -5272230.731 5  22872748.664    22872760.930          10.750
        11.000
  -3964670.650 5  -3061427.601 5  23410614.375    23410626.668          10.500
         9.750
  -2086445.351 5  -1614284.366 6  23345379.797    23345391.852           9.500
        12.750
  13083165.662 5  10194829.346 5  22666455.563    22666467.898          11.500
        11.250
 99  3  1 20 21 45.0000000  0  6G 2G 7G 4G 9G26G27
   3139131.371 7   2448026.042 6  21733921.211    21733931.352          20.000
        17.750
  -5001480.377 6  -3884773.890 6  20630355.727    20630364.875          19.000
        21.000
  -6850155.788 5  -5307389.469 5  22864162.531    22864174.676          10.750
        11.000
  -4005365.890 5  -3093138.098 5  23402869.297    23402882.223           9.250
         9.500
  -2060925.615 5  -1594398.918 5  23350236.078    23350247.945          10.000
        11.000
  13136797.908 5  10236620.606 5  22676661.500    22676673.746          11.500
        11.250
 99  3  1 20 22  0.0000000  0  6G 2G 7G 4G 9G26G27
   3156224.057 6   2461345.014 6  21737173.742    21737183.824          19.750
        17.750
  -4985911.664 6  -3872642.416 6  20633318.414    20633327.527          19.250
        21.000
  -6895225.874 5  -5342508.980 5  22855585.914    22855598.004          11.000
        10.750
  -4046011.940 5  -3124810.254 5  23395134.828    23395147.504           9.250
         9.500
  -2035303.951 5  -1574434.033 5  23355111.734    23355123.191          10.250
         8.750
  13190510.114 5  10278474.190 5  22686882.477    22686894.688          11.250
        11.000
 99  3  1 20 22 15.0000000  0  6G 2G 7G 4G 9G26G27
   3173358.875 6   2474696.817 6  21740434.461    21740444.512          19.750
        17.500
  -4970249.907 6  -3860438.444 6  20636298.797    20636307.844          19.250
        21.000
  -6940241.073 5  -5377585.727 5  22847019.961    22847032.199          11.000
        10.750
  -4086600.993 5  -3156437.996 5  23387411.055    23387424.000          10.000
        10.000
  -2009577.541 5  -1554387.492 5  23360007.422    23360018.328           9.750
         6.750
  13244305.202 5  10320392.331 5  22697119.508    22697132.133          11.000
        11.250
 99  3  1 20 22 30.0000000  0  6G 2G 7G 4G 9G26G27
   3190536.964 6   2488082.344 6  21743703.375    21743713.387          19.750
        17.750
  -4954497.439 6  -3848163.788 6  20639296.375    20639305.422          19.250
        21.000
  -6985201.643 5  -5412619.897 5  22838463.938    22838476.332          11.000
        10.750
  -4127130.368 5  -3188019.259 5  23379699.117    23379710.703          10.750
         9.250
  -1983748.989 5  -1534261.363 5  23364921.961    23364933.406           8.750
         6.500
  13298180.473 5  10362372.973 5  22707371.617    22707384.191          11.000
        11.000
 99  3  1 20 22 45.0000000  0  6G 2G 7G 4G 9G26G27
   3207753.131 7   2501497.532 6  21746979.570    21746989.590          20.000
        17.500
  -4938660.178 6  -3835823.063 6  20642310.086    20642319.160          19.250
        21.000
  -7030113.529 5  -5447616.117 5  22829917.563    22829929.738          11.000
        10.750
  -4167602.968 5  -3219556.286 5  23371997.273    23372009.684          10.750
         9.750
  -1957825.803 5  -1514061.515 5  23369854.961    23369866.828           8.250
         7.250
  13352124.237 5  10404406.979 5  22717636.867    22717649.383          10.750
        11.000
 99  3  1 20 23  0.0000000  0  6G 2G 7G 4G 9G26G27
   3225013.537 6   2514947.196 6  21750264.102    21750274.168          19.750
        17.500
  -4922734.535 6  -3823413.462 6  20645340.633    20645349.801          19.250
        21.250
  -7074969.783 5  -5482568.982 5  22821381.836    22821393.883          11.000
        10.750
  -4208012.457 5  -3251044.104 5  23364308.000    23364320.063          10.750
        10.000
  -1931806.657 5  -1493786.919 5  23374806.531    23374818.363           8.750
         8.500
  13406138.944 5  10446496.268 5  22727915.445    22727928.191          10.500
        11.000
 99  3  1 20 23 15.0000000  0  6G 2G 7G 4G 9G26G27
   3242320.519 6   2528433.155 6  21753557.344    21753567.441          19.750
        17.500
  -4906720.454 6  -3810934.947 6  20648387.930    20648397.230          19.000
        21.250
  -7119767.683 5  -5517476.372 5  22812857.031    22812869.039          11.000
        10.500
  -4248358.593 5  -3282482.580 5  23356630.523    23356641.988          11.000
         9.750
  -1905691.724 5  -1473437.668 5  23379776.219    23379787.902          10.000
         9.250
  13460223.880 5  10488640.273 5  22738207.813    22738220.559          10.500
        11.250
 99  3  1 20 23 30.0000000  0  6G 2G 7G 4G 9G26G27
   3259673.932 6   2541955.297 6  21756859.656    21756869.645          19.750
        17.500
  -4890617.985 6  -3798387.564 6  20651451.992    20651461.367          18.750
        21.500
  -7164506.496 5  -5552337.729 5  22804343.320    22804355.676          10.750
        10.500
  -4288642.516 5  -3313872.564 5  23348963.188    23348976.348           9.500
        10.000
  -1879484.198 5  -1453016.266 5  23384763.508    23384775.031          11.000
         9.500
  13514378.116 5  10530838.283 5  22748512.930    22748525.734          10.250
        11.000
 99  3  1 20 23 45.0000000  0  6G 2G 7G 4G 9G26G27
   3277081.508 6   2555519.638 6  21760172.398    21760182.426          19.750
        17.500
  -4874423.403 6  -3785768.398 6  20654533.609    20654543.133          18.750
        21.500
  -7209181.120 5  -5587149.059 5  22795841.883    22795854.094          10.750
        10.750
  -4328860.404 5  -3345211.083 5  23341310.875    23341322.770          10.500
         9.750
  -1853181.448 5  -1432520.652 5  23389768.852    23389780.613          11.250
         9.500
  13568604.440 5  10573092.453 5  22758831.914    22758844.383          10.000
        11.000
 99  3  1 20 24  0.0000000  0  6G 2G 7G 4G 9G26G27
   3294543.983 6   2569126.765 6  21763495.414    21763505.324          19.750
        17.500
  -4858142.340 6  -3773081.847 6  20657631.695    20657641.129          18.750
        21.250
  -7253795.449 5  -5621913.411 5  22787352.297    22787364.309          10.750
        10.750
  -4369015.453 5  -3376500.658 5  23333668.695    23333680.453          10.000
         9.000
  -1826786.188 5  -1411952.950 5  23394791.805    23394803.426          10.750
         9.000
  13622899.499 5  10615400.195 5  22769163.938    22769176.813           9.750
        11.000
 99  3  1 20 24 15.0000000  0  6G 2G 7G 4G 9G26G27
   3312063.908 6   2582778.646 6  21766829.352    21766839.152          19.750
        17.250
  -4841776.335 6  -3760329.107 6  20660746.039    20660755.355          18.750
        21.250
  -7298353.487 5  -5656633.898 5  22778872.898    22778884.910          10.500
        10.750
  -4409107.502 5  -3407741.143 5  23326039.688    23326051.938          10.500
         9.750
  -1800298.459 5  -1391313.197 5  23399832.023    23399843.969           9.750
         9.000
  13677263.773 5  10657761.854 5  22779509.156    22779522.289           9.750
        11.000
 99  3  1 20 24 30.0000000  0  6G 2G 7G 4G 9G26G27
   3329643.523 7   2596477.051 6  21770174.484    21770184.289          20.000
        17.250
  -4825323.529 6  -3747508.737 6  20663877.000    20663886.359          18.750
        21.000
  -7342851.135 5  -5691307.328 5  22770405.078    22770417.457          10.500
        11.000
  -4449132.007 5  -3438928.982 5  23318423.602    23318435.137          10.750
         9.750
  -1773709.535 5  -1370594.601 5  23404891.828    23404903.910           9.250
         9.250
  13731704.567 5  10700183.149 5  22789869.055    22789881.762           9.500
        10.750
 99  3  1 20 24 45.0000000  0  6G 2G 7G 4G 9G26G27
   3347282.118 6   2610221.405 6  21773530.992    21773540.902          19.750
        17.250
  -4808786.528 6  -3734622.758 6  20667023.969    20667033.047          18.750
        21.000
  -7387290.206 5  -5725935.105 5  22761948.828    22761960.879          10.750
        11.000
  -4489093.302 5  -3470067.579 5  23310818.242    23310830.035           9.250
         8.750
  -1747018.722 5  -1349796.623 5  23409971.078    23409982.785           9.500
        10.000
  13786220.841 5  10742663.269 5  22800243.297    22800256.172           9.750
        11.000
 99  3  1 20 25  0.0000000  0  6G 2G 7G 4G 9G26G27
   3364974.747 6   2624007.868 6  21776897.805    21776907.813          19.750
        17.250
  -4792167.284 6  -3721672.687 6  20670186.531    20670195.613          18.750
        20.750
  -7431671.101 5  -5760517.550 5  22753503.484    22753515.488          11.000
        11.250
  -4528996.180 5  -3501160.642 5  23303224.594    23303237.703           9.000
         9.750
  -1720229.482 5  -1328921.935 5  23415068.977    23415080.629          10.500
        10.750
  13840814.017 5  10785203.310 5  22810631.984    22810645.234           9.750
        11.000
 99  3  1 20 25 15.0000000  0  6G 2G 7G 4G 9G26G27
   3382722.466 6   2637837.259 6  21780275.008    21780285.082          19.750
        17.500
  -4775465.099 6  -3708657.995 6  20673364.906    20673373.934          18.750
        20.750
  -7475992.544 5  -5795053.671 5  22745069.078    22745081.137          10.750
        11.500
  -4568840.907 5  -3532208.375 5  23295642.570    23295654.926           9.250
         9.750
  -1693341.175 5  -1307970.063 5  23420185.547    23420197.340          11.250
        11.500
  13895488.521 5  10827806.723 5  22821036.352    22821049.441           9.750
        10.750
 99  3  1 20 25 30.0000000  0  6G 2G 7G 4G 9G26G27
   3400531.080 6   2651714.097 6  21783663.977    21783674.027          19.750
        17.250
  -4758673.109 6  -3695573.325 6  20676560.242    20676569.449          18.750
        20.750
  -7520250.050 5  -5829539.969 5  22736647.211    22736659.578          11.000
        11.750
  -4608621.003 5  -3563205.781 5  23288074.328    23288085.035          11.250
         9.500
  -1666346.488 6  -1286935.289 6  23425322.695    23425334.516          12.000
        12.000
  13950250.368 5  10870478.203 5  22831457.500    22831470.449          10.000
        10.500
 99  3  1 20 25 45.0000000  0  6G 2G 7G 4G 9G26G27
   3418390.459 6   2665630.496 6  21787062.320    21787072.422          19.500
        17.250
  -4741799.409 6  -3682424.984 6  20679771.211    20679780.258          18.750
        20.500
  -7564453.424 5  -5863984.085 5  22728235.445    22728247.453          11.250
        11.750
  -4648341.878 5  -3594157.026 5  23280514.789    23280526.191          10.500
         9.500
  -1639252.534 5  -1265823.159 6  23430478.539    23430490.469          11.750
        12.250
  14005091.227 5  10913211.236 5  22841893.266    22841906.086           9.750
        10.500
 99  3  1 20 26  0.0000000  0  6G 2G 7G 4G 9G26G27
   3436297.416 6   2679583.962 6  21790470.047    21790480.082          19.750
        17.250
  -4724845.953 6  -3669214.498 6  20682997.258    20683006.254          18.750
        20.500
  -7608604.383 5  -5898387.363 6  22719834.086    22719846.039          11.750
        12.000
  -4688004.389 5  -3625062.802 5  23272967.539    23272978.477          10.500
         9.250
  -1612059.538 5  -1244633.865 6  23435653.086    23435665.145          10.500
        12.000
  14060007.256 5  10956002.840 5  22852343.563    22852356.270          10.000
        10.500
 99  3  1 20 26 15.0000000  0  6G 2G 7G 4G 9G26G27
   3454252.286 6   2693574.773 6  21793886.906    21793896.910          19.500
        17.250
  -4707811.957 6  -3655941.249 6  20686238.906    20686247.828          18.750
        20.250
  -7652700.953 5  -5932748.277 6  22711442.641    22711454.641          11.750
        12.250
  -4727604.023 5  -3655919.575 5  23265431.094    23265443.090           9.750
         9.500
  -1584764.994 5  -1223365.454 5  23440847.148    23440859.059           9.250
        11.500
  14114998.637 5  10998853.180 5  22862808.289    22862821.078          10.250
        10.500
 99  3  1 20 26 30.0000000  0  6G 2G 7G 4G 9G26G27
   3472250.270 6   2707599.173 6  21797311.781    21797321.668          19.500
        17.000
  -4690698.406 6  -3642606.009 6  20689495.516    20689504.449          19.000
        20.250
  -7696744.738 6  -5967068.047 6  22703061.344    22703073.172          12.250
        12.250
  -4767140.763 5  -3686727.335 5  23257908.422    23257919.625          11.000
         9.750
  -1557369.955 5  -1202018.733 5  23446060.156    23446072.238           8.250
        11.000
  14170062.683 5  11041760.139 5  22873286.578    22873299.465          10.000
        10.250
 99  3  1 20 26 45.0000000  0  6G 2G 7G 4G 9G26G27
   3490291.221 6   2721657.052 6  21800744.727    21800754.527          19.500
        17.000
  -4673504.663 6  -3629208.284 6  20692767.414    20692776.359          19.000
        20.000
  -7740732.830 6  -6001344.425 6  22694690.727    22694702.516          12.250
        12.500
  -4806614.790 5  -3717486.238 5  23250396.195    23250407.473          10.500
         9.500
  -1529879.088 5  -1180597.347 5  23451291.688    23451303.695           8.750
        10.750
  14225198.672 5  11084723.145 5  22883778.859    22883791.594          10.250
        10.000
 99  3  1 20 27  0.0000000  0  6G 2G 7G 4G 9G26G27
   3508378.687 6   2735751.183 6  21804186.781    21804196.523          19.500
        17.000
  -4656225.159 6  -3615743.736 6  20696055.570    20696064.406          18.750
        20.000
  -7784663.422 6  -6035575.992 6  22686330.859    22686342.797          12.500
        12.500
  -4846023.305 5  -3748194.086 5  23242897.359    23242908.770          11.250
        10.000
  -1502295.959 5  -1159104.062 5  23456540.508    23456552.469           9.250
        10.500
  14280404.924 5  11127740.901 5  22894284.273    22894297.059          10.250
        10.250
 99  3  1 20 27 15.0000000  0  6G 2G 7G 4G 9G26G27
   3526514.370 6   2749882.884 6  21807637.914    21807647.633          19.500
        17.000
  -4638859.343 6  -3602211.936 6  20699360.133    20699368.988          19.000
        20.250
  -7828534.854 6  -6069761.459 6  22677982.203    22677994.289          12.500
        12.500
  -4885363.910 5  -3778849.019 5  23235410.031    23235422.039          10.250
         9.500
  -1474619.967 5  -1137538.407 5  23461807.023    23461819.059          10.000
        10.500
  14335681.003 5  11170813.066 5  22904803.000    22904815.766          10.250
        10.250
 99  3  1 20 27 30.0000000  0  6G 2G 7G 4G 9G26G27
   3544702.320 6   2764055.313 6  21811098.883    21811108.750          19.500
        16.750
  -4621406.123 6  -3588612.021 6  20702681.492    20702690.266          19.000
        20.000
  -7872346.796 6  -6103900.574 6  22669645.008    22669657.141          12.250
        12.250
  -4924635.589 5  -3809450.251 5  23227936.773    23227948.598          10.000
         9.000
  -1446849.889 5  -1115899.421 5  23467091.711    23467103.871          10.500
        10.750
  14391023.208 5  11213936.738 5  22915334.148    22915347.203          10.000
        10.000
 99  3  1 20 27 45.0000000  0  6G 2G 7G 4G 9G26G27
   3562935.840 6   2778263.249 6  21814568.617    21814578.504          19.250
        16.750
  -4603872.610 6  -3574949.544 6  20706017.836    20706026.598          19.000
        20.250
  -7916103.464 6  -6137996.617 6  22661318.383    22661330.215          12.250
        12.250
  -4963844.815 5  -3840002.809 5  23220475.641    23220488.289          10.000
        10.000
  -1418992.461 5  -1094192.380 5  23472392.758    23472404.906          10.500
        11.000
  14446426.552 5  11257108.052 5  22925877.297    22925890.250          10.000
        10.250
 99  3  1 20 28  0.0000000  0  6G 2G 7G 4G 9G26G27
   3581224.061 6   2792513.801 6  21818048.844    21818058.637          19.500
        16.750
  -4586248.639 6  -3561216.585 6  20709371.656    20709380.645          18.750
        20.250
  -7959794.093 6  -6172041.200 6  22653004.305    22653016.336          12.000
        12.250
  -5002983.028 5  -3870500.022 5  23213028.547    23213039.977          11.000
         9.750
  -1391041.280 5  -1072412.287 5  23477711.734    23477724.027          10.000
        11.750
  14501900.940 5  11300334.720 5  22936433.750    22936447.102           9.750
        10.500
 99  3  1 20 28 15.0000000  0  6G 2G 7G 4G 9G26G27
   3599562.464 6   2806803.459 6  21821538.539    21821548.293          19.500
        16.500
  -4568538.032 6  -3547416.109 6  20712741.883    20712750.781          18.750
        20.250
  -8003422.603 5  -6206037.385 6  22644702.031    22644713.891          11.750
        12.250
  -5042054.446 5  -3900945.227 5  23205593.281    23205604.820          11.000
         9.750
  -1363005.291 5  -1050566.112 6  23483047.125    23483059.121           9.250
        12.000
  14557443.516 5  11343614.538 5  22947003.414    22947016.445           9.750
        10.500
 99  3  1 20 28 30.0010000  4  1
1.627                                                       COMMENT
 99  3  1 20 28 30.0010000  0  6G 2G 7G 4G 9G26G27
   3617953.356 6   2821134.026 6  21825038.216    21825047.966          19.500
        16.750
  -4550736.354 6  -3533544.671 6  20716129.380    20716138.489          18.500
        20.250
  -8046991.264 5  -6239986.927 6  22636411.130    22636422.892          11.750
        12.000
  -5081060.239 5  -3931339.263 5  23198170.317    23198182.497          10.750
        10.500
  -1334882.449 5  -1028652.272 6  23488398.528    23488410.985           8.000
        12.500
  14613061.795 5  11386953.340 5  22957587.075    22957600.259           9.750
        10.250
 99  3  1 20 28 45.0010000  0  6G 2G 7G 4G 9G26G27
   3636394.307 6   2835503.593 6  21828547.231    21828557.192          19.250
        16.750
  -4532844.892 6  -3519603.273 6  20719533.950    20719543.071          18.500
        20.250
  -8090492.462 5  -6273883.898 5  22628132.942    22628144.985          11.500
        11.750
  -5119995.924 5  -3961678.676 5  23190760.974    23190772.653          11.000
        10.000
  -1306678.612 4  -1006675.306 6  23493765.372    23493778.079           7.250
        12.500
  14668749.012 5  11430345.875 5  22968184.356    22968197.470           9.750
        10.000
 99  3  1 20 29  0.0010000  0  6G 2G 7G 4G 9G26G27
   3654891.121 6   2849916.692 6  21832067.114    21832077.028          19.250
        16.500
  -4514860.286 6  -3505589.293 6  20722956.192    20722965.274          18.500
        20.250
  -8133928.902 5  -6307730.414 5  22619867.052    22619879.126          11.250
        11.750
  -5158865.016 5  -3991966.211 5  23183364.036    23183376.712          10.750
        10.500
  -1278390.367 4   -984632.589 6  23499148.606    23499160.970           6.750
        12.500
  14724508.934 5  11473795.048 5  22978795.231    22978808.122           9.500
        10.000
 99  3  1 20 29 15.0010000  0  6G 2G 7G 4G 9G26G27
   3673437.445 6   2864368.370 6  21835596.294    21835606.337          19.250
        16.750
  -4496790.137 6  -3491508.653 6  20726394.771    20726403.899          18.250
        20.250
  -8177306.104 5  -6341530.767 5  22611612.724    22611624.571          11.250
        11.500
  -5197672.967 5  -4022206.079 5  23175978.739    23175991.438          10.000
        10.250
  -1250019.676 4   -962525.626 6  23504547.263    23504559.724           6.500
        12.500
  14780336.333 5  11517296.794 5  22989418.497    22989431.978           9.250
        10.250
 99  3  1 20 29 30.0010000  0  6G 2G 7G 4G 9G26G27
   3692031.474 6   2878857.216 6  21839134.614    21839144.575          19.250
        16.500
  -4478637.608 6  -3477363.827 6  20729848.989    20729858.235          18.250
        20.500
  -8220623.739 5  -6375284.699 5  22603369.521    22603381.419          11.250
        11.500
  -5236419.775 5  -4052398.318 5  23168606.153    23168617.435          11.000
         9.750
  -1221566.946 4   -940354.748 6  23509961.606    23509974.216           6.250
        12.250
  14836234.199 5  11560853.441 5  23000055.567    23000069.243           9.000
        10.250
 99  3  1 20 29 45.0010000  0  6G 2G 7G 4G 9G26G27
   3710679.242 6   2893387.941 6  21842683.286    21842693.255          19.250
        16.750
  -4460397.766 6  -3463150.961 6  20733320.106    20733329.278          18.500
        20.250
  -8263877.579 5  -6408988.925 5  22595138.403    22595150.587          11.250
        11.500
  -5275099.131 5  -4082538.001 5  23161245.919    23161257.692          11.500
        10.500
  -1193026.530 4   -918115.526 6  23515392.536    23515405.142           6.500
        12.500
  14892209.491 5  11604470.427 5  23010707.685    23010720.903           9.000
         9.750
 99  3  1 20 30  0.0010000  0  6G 2G 7G 4G 9G26G27
   3729379.691 6   2907959.710 6  21846241.810    21846251.837          19.250
        16.750
  -4442073.526 6  -3448872.333 6  20736807.052    20736816.259          18.500
        20.250
  -8307070.050 5  -6442645.327 5  22586919.317    22586931.392          11.500
        11.500
  -5313710.725 5  -4112624.880 5  23153897.935    23153909.009          11.000
         9.750
  -1164400.146 4   -895809.324 6  23520840.153    23520852.778           6.750
        12.250
  14948260.004 5  11648146.035 5  23021373.278    23021387.204           8.750
        10.000
 99  3  1 20 30 15.0010000  0  6G 2G 7G 4G 9G26G27
   3748136.399 6   2922575.317 6  21849811.091    21849821.173          19.250
        16.750
  -4423663.102 6  -3434526.547 6  20740310.575    20740319.712          18.250
        20.250
  -8350201.661 5  -6476254.310 5  22578711.575    22578723.532          11.750
        11.750
  -5352253.094 5  -4142657.830 5  23146563.247    23146575.032          10.750
        10.000
  -1135686.010 4   -873434.748 6  23526304.388    23526316.942           7.250
        12.250
  15004383.002 5  11691878.122 5  23032053.552    23032067.290           8.750
        10.000
 99  3  1 20 30 30.0010000  0  6G 2G 7G 4G 9G26G27
   3766947.545 6   2937233.359 6  21853390.739    21853400.735          19.250
        16.750
  -4405172.160 6  -3420118.020 6  20743829.271    20743838.438          18.250
        20.250
  -8393274.078 5  -6509817.162 6  22570515.169    22570527.083          11.750
        12.000
  -5390728.710 5  -4172638.732 5  23139241.583    23139253.868          10.750
        10.750
  -1106884.764 4   -850992.289 6  23531784.974    23531797.794           7.250
        12.000
  15060573.867 5  11735663.084 5  23042746.302    23042760.146           8.750
         9.750
 99  3  1 20 30 45.0010000  0  6G 2G 7G 4G 9G26G27
   3785812.112 6   2951933.013 6  21856980.560    21856990.618          19.250
        16.750
  -4386604.307 6  -3405649.559 6  20747362.575    20747371.485          18.250
        20.250
  -8436286.214 6  -6543333.046 6  22562330.200    22562342.169          12.250
        12.000
  -5429141.152 5  -4202570.429 5  23131932.099    23131943.610          11.250
        10.000
  -1077995.559 5   -828481.301 5  23537282.411    23537295.063           7.750
        11.500
  15116829.388 5  11779498.444 5  23053451.349    23053465.411           8.250
        10.000
 99  3  1 20 31  0.0010000  0  6G 2G 7G 4G 9G26G27
   3804734.624 6   2966677.821 6  21860581.474    21860591.454          19.250
        16.750
  -4367958.032 6  -3391119.992 6  20750910.630    20750919.536          18.250
        20.000
  -8479232.922 6  -6576797.936 6  22554157.716    22554169.446          12.750
        12.250
  -5467486.830 5  -4232450.105 5  23124634.567    23124646.759          11.250
        10.000
  -1049012.615 5   -805897.248 5  23542797.919    23542810.431           8.750
        11.000
  15173151.878 5  11823385.971 5  23064169.185    23064183.146           8.250
        10.000
 99  3  1 20 31 15.0010000  0  6G 2G 7G 4G 9G26G27
   3823713.224 6   2981466.337 6  21864192.942    21864202.997          19.500
        16.500
  -4349234.371 6  -3376530.127 6  20754473.630    20754482.505          18.250
        19.750
  -8522115.464 6  -6610212.831 6  22545997.466    22546009.251          13.000
        12.500
  -5505766.488 5  -4262278.337 5  23117350.755    23117362.048          11.750
        10.000
  -1019936.504 5   -783240.589 5  23548330.872    23548343.583           9.500
        10.250
  15229540.703 5  11867325.193 5  23074900.153    23074913.813           8.250
         9.750
 99  3  1 20 31 30.0010000  0  6G 2G 7G 4G 9G26G27
   3842748.261 6   2996298.828 6  21867815.161    21867825.196          19.500
        16.750
  -4330433.472 6  -3361880.074 6  20758051.458    20758060.356          18.250
        19.750
  -8564930.547 6  -6643575.174 6  22537849.903    22537861.743          13.250
        12.750
  -5543976.699 5  -4292052.460 5  23110079.067    23110091.228          11.750
        10.500
   -990765.913 5   -760510.313 5  23553882.177    23553894.677          10.000
         9.500
  15285998.720 5  11911318.338 5  23085643.739    23085657.571           8.250
        10.000
 99  3  1 20 31 45.0010000  0  6G 2G 7G 4G 9G26G27
   3861843.043 6   3011177.874 6  21871448.739    21871458.747          19.250
        16.750
  -4311552.149 6  -3347167.348 6  20761644.419    20761653.271          18.000
        19.750
  -8607675.786 6  -6676883.076 6  22529715.771    22529727.567          13.500
        12.750
  -5582115.608 6  -4321771.010 5  23102822.067    23102832.774          12.500
         9.750
   -961498.385 5   -737704.510 5  23559451.388    23559463.712          10.250
         8.500
  15342526.913 5  11955366.159 5  23096400.575    23096414.681           8.000
        10.000
 99  3  1 20 32  0.0010000  0  6G 2G 7G 4G 9G26G27
   3880996.526 6   3026102.660 6  21875093.489    21875103.548          19.250
        16.750
  -4292592.081 6  -3332393.269 6  20765252.521    20765261.337          18.250
        19.750
  -8650349.191 6  -6710135.018 6  22521595.333    22521606.970          13.500
        13.000
  -5620184.820 5  -4351435.277 5  23095577.278    23095588.575          11.750
        10.000
   -932134.387 5   -714823.511 5  23565039.356    23565051.552          10.750
         7.750
  15399122.805 5  11999466.745 5  23107170.599    23107184.614           8.000
        10.000
 99  3  1 20 32 15.0010000  0  6G 2G 7G 4G 9G26G27
   3900203.984 6   3041069.505 6  21878748.739    21878758.692          19.250
        16.500
  -4273554.399 6  -3317558.706 6  20768875.278    20768884.142          18.250
        19.750
  -8692951.229 6  -6743331.343 6  22513488.153    22513500.118          13.500
        13.000
  -5658186.451 6  -4381046.873 5  23088345.903    23088357.646          12.000
        10.750
   -902676.386 5   -691869.276 5  23570645.247    23570657.407          10.750
         7.250
  15455783.209 5  12043617.587 5  23117952.583    23117966.856           8.000
        10.000
 99  3  1 20 32 30.0010000  0  6G 2G 7G 4G 9G26G27
   3919461.144 6   3056075.082 6  21882413.224    21882423.071          19.250
        16.500
  -4254441.227 6  -3302665.323 6  20772512.341    20772521.282          18.250
        20.000
  -8735478.720 6  -6776469.576 6  22505395.528    22505407.185          13.500
        13.250
  -5696121.451 5  -4410606.513 5  23081126.599    23081139.063          11.000
        11.250
   -873123.865 5   -668841.369 5  23576269.028    23576281.228          10.500
         7.000
  15512508.833 5  12087819.245 5  23128747.599    23128761.536           8.250
        10.250
 99  3  1 20 32 45.0010000  0  6G 2G 7G 4G 9G26G27
   3938764.998 6   3071117.044 6  21886086.638    21886096.438          19.250
        16.500
  -4235253.159 6  -3287713.572 6  20776163.661    20776172.786          18.250
        20.250
  -8777931.354 6  -6809549.481 6  22497316.747    22497328.649          13.250
        13.250
  -5733989.872 6  -4440114.293 5  23073921.435    23073932.579          12.000
        11.000
   -843476.275 5   -645739.379 5  23581910.685    23581922.997           9.750
         7.000
  15569299.769 5  12132071.798 5  23139554.286    23139568.591           8.000
        10.000
 99  3  1 20 33  0.0010000  0  6G 2G 7G 4G 9G26G27
   3958117.073 6   3086196.577 6  21889769.208    21889778.962          19.250
        16.500
  -4215986.333 6  -3272700.460 6  20779830.036    20779838.958          18.250
        20.250
  -8820305.867 6  -6842568.519 6  22489253.114    22489264.774          13.000
        13.250
  -5771788.324 6  -4469567.546 5  23066728.310    23066739.454          12.000
        10.500
   -813731.179 5   -622561.435 5  23587571.114    23587583.298           9.500
         7.500
  15626156.653 5  12176375.743 5  23150374.450    23150388.505           8.250
        10.250
 99  3  1 20 33 15.0010000  0  6G 2G 7G 4G 9G26G27
   3977515.329 6   3101312.098 6  21893460.513    21893470.415          19.250
        16.500
  -4196642.568 6  -3257627.388 6  20783510.942    20783519.974          18.500
        20.250
  -8862606.063 6  -6875529.654 6  22481203.513    22481215.345          12.750
        13.250
  -5809518.835 5  -4498967.885 5  23059548.044    23059558.599          11.500
        10.000
   -783892.376 5   -599310.458 5  23593249.216    23593261.560           9.000
         8.000
  15683075.914 5  12220728.295 5  23161205.560    23161219.724           8.500
        10.250
 99  3  1 20 33 30.0010000  0  6G 2G 7G 4G 9G26G27
   3996959.814 6   3116463.634 6  21897160.528    21897170.353          19.250
        16.250
  -4177224.133 6  -3242496.135 6  20787206.200    20787215.177          18.500
        20.250
  -8904831.009 6  -6908432.149 6  22473168.286    22473180.427          12.500
        13.000
  -5847180.408 6  -4528314.473 5  23052381.880    23052392.196          12.250
        10.000
   -753963.246 5   -575989.102 5  23598944.763    23598956.978           8.500
         8.750
  15740057.780 5  12265129.624 5  23172048.841    23172062.829           8.500
        10.000
 99  3  1 20 33 45.0010000  0  6G 2G 7G 4G 9G26G27
   4016451.481 6   3131651.938 6  21900869.731    21900879.618          19.250
        16.500
  -4157731.059 6  -3227306.718 6  20790915.731    20790924.685          18.500
        20.250
  -8946978.246 6  -6941274.086 6  22465147.974    22465159.864          12.250
        13.000
  -5884769.025 6  -4557604.240 5  23045229.575    23045238.892          13.000
         9.750
   -723942.513 5   -552596.379 5  23604657.364    23604669.735           8.000
         9.500
  15797102.980 5  12309580.317 5  23182904.661    23182918.763           8.750
        10.000
 99  3  1 20 34  0.0010000  0  6G 2G 7G 4G 9G26G27
   4035986.036 6   3146873.664 6  21904587.052    21904596.771          19.250
        16.250
  -4138164.646 6  -3212060.157 6  20794639.044    20794648.083          18.500
        20.500
  -8989050.487 6  -6974057.576 6  22457141.739    22457153.747          12.000
        13.000
  -5922288.501 5  -4586840.132 5  23038088.552    23038099.630          11.750
        10.250
   -693834.463 5   -529135.627 5  23610386.638    23610399.540           7.500
        10.250
  15854206.856 5  12354076.717 5  23193771.200    23193785.290           9.000
        10.000
 99  3  1 20 34 15.0010000  0  6G 2G 7G 4G 9G26G27
   4055562.546 6   3162128.081 6  21908312.302    21908322.110          19.250
        16.250
  -4118526.234 6  -3196757.489 6  20798376.130    20798385.251          18.250
        20.500
  -9031051.090 6  -7006785.255 6  22449149.349    22449161.130          12.000
        12.750
  -5959742.335 6  -4616024.845 5  23030961.567    23030973.216          12.000
        11.000
   -663642.925 5   -505609.839 5  23616131.935    23616144.560           7.750
        10.750
  15911365.766 5  12398615.998 5  23204648.466    23204662.290           9.000
         9.750
 99  3  1 20 34 30.0010000  0  6G 2G 7G 4G 9G26G27
   4075181.814 6   3177415.820 6  21912045.864    21912055.665          19.250
        16.250
  -4098812.677 6  -3181396.266 6  20802127.489    20802136.560          18.250
        20.500
  -9072979.974 6  -7039457.047 6  22441170.372    22441182.204          12.000
        12.500
  -5997128.895 6  -4645157.147 5  23023847.356    23023858.228          12.500
        10.750
   -633370.724 5   -482021.181 5  23621892.685    23621905.153           8.000
        11.250
  15968578.813 5  12443197.485 5  23215535.583    23215549.614           8.750
         9.750
 99  3  1 20 34 45.0010000  0  6G 2G 7G 4G 9G26G27
   4094848.093 6   3192740.182 6  21915788.302    21915797.989          19.250
        16.250
  -4079021.001 6  -3165974.175 6  20805893.442    20805902.552          18.250
        20.500
  -9114835.172 6  -7072071.419 6  22433205.380    22433217.388          12.250
        12.500
  -6034447.097 5  -4674236.192 5  23016744.958    23016756.981          11.750
        10.750
   -603018.751 5   -458370.360 5  23627668.692    23627681.157           8.250
        11.500
  16025849.743 5  12487824.052 5  23226433.856    23226447.989           9.000
         9.750
 99  3  1 20 35  0.0010000  0  6G 2G 7G 4G 9G26G27
   4114566.585 6   3208105.230 6  21919540.606    21919550.411          19.250
        16.250
  -4059144.027 6  -3150485.616 6  20809675.974    20809685.138          18.000
        20.500
  -9156615.360 6  -7104627.340 6  22425255.028    22425266.642          12.250
        12.500
  -6071693.228 6  -4703259.064 5  23009657.528    23009668.587          12.000
        10.500
   -572586.609 5   -434657.072 6  23633459.466    23633472.290           8.250
        12.000
  16083181.554 5  12532498.061 5  23237344.294    23237358.013           9.000
         9.750
 99  3  1 20 35 15.0010000  0  6G 2G 7G 4G 9G26G27
   4134336.795 6   3223510.583 6  21923302.677    21923312.560          18.750
        16.250
  -4039184.319 6  -3134932.586 6  20813474.239    20813483.431          18.250
        20.500
  -9198323.205 6  -7137126.902 6  22417318.505    22417329.911          12.500
        12.500
  -6108866.848 5  -4732225.457 5  23002583.450    23002595.024          11.750
        10.750
   -542079.288 5   -410885.207 6  23639265.114    23639277.587           8.750
        12.000
  16140574.294 5  12577219.551 5  23248265.231    23248279.712           9.000
         9.750
 99  3  1 20 35 30.0010000  0  6G 2G 7G 4G 9G26G27
   4154160.542 6   3238957.650 6  21927074.942    21927085.024          18.750
        16.250
  -4019141.828 6  -3119315.052 6  20817288.216    20817297.411          18.000
        20.250
  -9239961.411 6  -7169572.205 6  22409394.880    22409406.282          12.750
        12.500
  -6145966.824 6  -4761134.449 5  22995523.763    22995535.118          12.000
        11.000
   -511498.913 5   -387056.401 6  23645084.458    23645097.146           9.250
        12.250
  16198031.027 5  12621990.904 5  23259199.474    23259213.509           9.000
         9.500
 99  3  1 20 35 45.0010000  0  6G 2G 7G 4G 9G26G27
   4174034.208 6   3254443.615 6  21930856.778    21930866.845          18.750
        16.250
  -3999018.590 6  -3103634.599 6  20821117.497    20821126.669          18.250
        20.250
  -9281533.016 6  -7201965.599 6  22401484.169    22401495.657          13.000
        12.500
  -6182992.072 5  -4789985.209 5  22988477.856    22988488.935          11.750
        10.750
   -480847.300 5   -363172.089 6  23650917.075    23650929.794           9.250
        12.500
  16255548.448 5  12666809.556 5  23270144.599    23270158.521           9.000
         9.250
 99  3  1 20 36  0.0010000  0  6G 2G 7G 4G 9G26G27
   4193960.807 6   3269970.817 6  21934648.638    21934658.630          18.750
        16.250
  -3978809.151 6  -3087886.978 6  20824963.177    20824972.310          18.000
        20.000
  -9323036.398 6  -7234305.842 6  22393586.286    22393597.665          13.250
        12.500
  -6219941.112 6  -4818776.599 5  22981447.396    22981457.427          12.500
        10.750
   -450119.482 5   -339228.400 6  23656764.474    23656777.106           9.250
        12.250
  16313128.040 5  12711676.651 5  23281102.005    23281115.536           9.000
         9.500
 99  3  1 20 36 15.0010000  0  6G 2G 7G 4G 9G26G27
   4213942.812 6   3285541.210 6  21938451.192    21938461.196          18.750
        16.250
  -3958511.385 6  -3072070.531 6  20828825.771    20828834.802          18.250
        20.000
  -9364470.838 6  -7266592.359 6  22385701.513    22385712.923          13.500
        12.750
  -6256814.119 6  -4847508.736 5  22974429.849    22974440.899          12.000
        11.000
   -419315.803 5   -315225.589 6  23662626.310    23662638.985           9.250
        12.000
  16370771.291 5  12756593.343 5  23292071.091    23292085.321           9.000
         9.500
 99  3  1 20 36 30.0010000  0  6G 2G 7G 4G 9G26G27
   4233979.064 6   3301153.863 6  21942264.013    21942274.052          18.750
        16.250
  -3938125.982 6  -3056185.793 6  20832704.911    20832713.985          18.250
        20.000
  -9405835.712 6  -7298824.673 6  22377830.185    22377841.544          13.750
        12.750
  -6293606.769 5  -4876178.249 5  22967428.106    22967439.271          11.750
        10.750
   -388436.971 5   -291164.224 5  23668502.239    23668514.876           9.250
        11.500
  16428476.308 5  12801558.173 5  23303051.927    23303066.134           8.500
         9.250
 99  3  1 20 36 45.0010000  0  6G 2G 7G 4G 9G26G27
   4254068.623 6   3316808.061 6  21946086.958    21946096.896          18.750
        16.250
  -3917655.850 6  -3040235.036 6  20836600.435    20836609.243          18.500
        20.000
  -9447131.039 6  -7331002.795 6  22369971.802    22369983.142          14.000
        13.000
  -6330314.593 5  -4904781.663 5  22960442.552    22960454.521          11.750
        11.250
   -357478.870 5   -267041.095 5  23674393.466    23674406.157           9.250
        11.500
  16486246.212 5  12846573.553 5  23314045.474    23314059.431           8.750
         9.250
 99  3  1 20 37  0.0010000  0  6G 2G 7G 4G 9G26G27
   4274211.573 6   3332503.857 6  21949920.130    21949929.946          18.750
        16.250
  -3897103.733 6  -3024220.391 6  20840511.349    20840520.239          18.500
        20.000
  -9488356.406 6  -7363126.404 6  22362126.825    22362138.122          14.000
        13.250
  -6366937.064 5  -4933318.570 5  22953473.786    22953485.251          11.750
        11.250
   -326437.442 5   -242853.024 5  23680300.614    23680313.454           9.250
        11.500
  16544080.242 5  12891638.918 5  23325051.239    23325065.146           8.500
         9.250
 99  3  1 20 37 15.0010000  0  6G 2G 7G 4G 9G26G27
   4294405.620 6   3348239.465 6  21953762.794    21953772.817          18.750
        16.250
  -3876477.559 6  -3008148.044 6  20844436.372    20844445.239          18.500
        20.250
  -9529514.989 6  -7395197.961 6  22354294.630    22354305.970          14.000
        13.250
  -6403475.886 5  -4961790.305 5  22946520.403    22946531.853          11.750
        11.000
   -295313.642 5   -218600.767 5  23686223.349    23686236.103           9.250
        11.250
  16601972.958 5  12936749.987 5  23336067.380    23336081.688           8.000
         9.000
 99  3  1 20 37 30.0010000  0  6G 2G 7G 4G 9G26G27
   4314652.344 6   3364016.131 6  21957615.739    21957625.634          18.750
        16.000
  -3855781.806 6  -2992021.472 6  20848374.560    20848383.603          18.500
        20.250
  -9570606.290 6  -7427217.111 6  22346475.231    22346486.563          14.000
        13.500
  -6439931.336 6  -4990197.070 5  22939583.458    22939594.692          12.250
        11.250
   -264106.067 5   -194283.242 5  23692161.778    23692174.704           9.250
        11.000
  16659925.924 5  12981908.020 5  23347095.614    23347110.009           8.000
         9.000
 99  3  1 20 37 45.0010000  0  6G 2G 7G 4G 9G26G27
   4334950.045 6   3379832.507 6  21961478.231    21961488.126          18.750
        16.000
  -3835019.649 6  -2975843.172 6  20852325.419    20852334.321          18.500
        20.250
  -9611628.517 6  -7459182.427 6  22338668.896    22338680.122          14.000
        13.500
  -6476306.707 6  -5018541.452 5  22932661.755    22932672.192          12.750
        10.750
   -232815.644 5   -169901.163 5  23698116.419    23698129.095           9.250
        10.750
  16717936.487 5  13027110.918 5  23358135.052    23358149.341           8.000
         9.250
 99  3  1 20 38  0.0010000  0  6G 2G 7G 4G 9G26G27
   4355301.074 6   3395690.451 6  21965350.724    21965360.634          18.750
        16.000
  -3814191.655 6  -2959613.558 6  20856288.825    20856297.915          18.250
        20.250
  -9652577.938 6  -7491091.010 6  22330876.333    22330887.763          14.000
        14.000
  -6512604.946 5  -5046825.739 5  22925753.099    22925764.056          11.500
        10.250
   -201440.928 5   -145453.396 5  23704086.755    23704099.739           9.000
        10.500
  16776004.730 5  13072358.757 5  23369185.161    23369199.099           7.750
         9.000
 99  3  1 20 38 15.0010000  0  6G 2G 7G 4G 9G26G27
   4375709.160 6   3411592.844 6  21969234.419    21969244.200          18.750
        16.000
  -3793295.330 6  -2943330.698 6  20860265.333    20860274.353          18.250
        20.500
  -9693449.189 6  -7522938.681 6  22323098.575    22323110.063          14.000
        14.000
  -6548826.864 6  -5075050.529 5  22918860.919    22918872.384          12.500
        11.500
   -169981.286 5   -120939.447 5  23710073.474    23710086.474           9.000
        10.250
  16834133.999 5  13117654.164 5  23380246.372    23380260.903           7.500
         9.000
 99  3  1 20 38 30.0010000  0  6G 2G 7G 4G 9G26G27
   4396174.469 6   3427539.834 6  21973128.778    21973138.595          18.500
        16.000
  -3772332.002 6  -2926995.629 6  20864254.435    20864263.630          18.250
        20.500
  -9734240.335 6  -7554723.923 6  22315336.356    22315347.782          14.000
        14.250
  -6584972.025 6  -5103215.516 5  22911983.302    22911993.782          13.250
        11.250
   -138437.989 5    -96360.316 5  23716075.841    23716088.872           8.500
        10.000
  16892323.871 4  13162996.798 5  23391319.708    23391334.524           7.250
         9.000
 99  3  1 20 38 45.0010000  0  6G 2G 7G 4G 9G26G27
   4416695.837 6   3443530.508 6  21977033.872    21977043.685          18.500
        15.750
  -3751307.295 6  -2910612.727 6  20868255.356    20868264.532          18.250
        20.500
  -9774952.840 6  -7586447.886 6  22307588.989    22307600.298          14.000
        14.250
  -6621045.140 6  -5131324.370 5  22905118.849    22905129.548          13.250
        11.250
   -106813.048 5    -71717.576 5  23722094.036    23722106.853           8.250
         9.750
  16950571.134 5  13208384.132 5  23402404.411    23402418.724           7.500
         9.000
 99  3  1 20 39  0.0010000  0  6G 2G 7G 4G 9G26G27
   4437274.848 6   3459566.090 6  21980949.958    21980959.688          18.500
        15.750
  -3730221.237 6  -2894182.026 6  20872267.716    20872276.915          18.250
        20.750
  -9815585.083 6  -7618109.314 6  22299856.833    22299868.220          14.000
        14.250
  -6657049.378 6  -5159379.566 5  22898267.599    22898277.751          13.500
        11.000
    -75108.707 5    -47012.943 5  23728127.200    23728140.099           8.000
         9.500
  17008877.466 4  13253817.506 5  23413499.372    23413514.106           7.250
         8.750
 99  3  1 20 39 15.0010000  0  6G 2G 7G 4G 9G26G27
   4457911.893 6   3475646.902 6  21984877.060    21984886.704          18.500
        15.750
  -3709070.614 6  -2877701.016 6  20876292.622    20876301.892          18.250
        21.000
  -9856139.350 6  -7649709.975 6  22292139.606    22292150.958          13.750
        14.250
  -6692986.965 6  -5187382.805 5  22891428.692    22891439.692          13.000
        11.250
    -43327.749 5    -22248.627 5  23734174.997    23734188.063           7.750
         9.250
  17067239.290 4  13299294.128 5  23424605.419    23424619.833           7.250
         8.500
 99  3  1 20 39 30.0010000  0  6G 2G 7G 4G 9G26G27
   4478608.283 6   3491773.953 6  21988815.528    21988825.216          18.500
        15.750
  -3687851.725 6  -2861166.801 6  20880330.505    20880339.856          18.000
        21.000
  -9896614.790 6  -7681249.206 6  22284437.325    22284448.688          13.750
        14.000
  -6728854.778 6  -5215331.678 5  22884603.122    22884613.528          13.000
        11.000
    -11470.614 4      2575.055 5  23740237.216    23740250.208           7.250
         9.000
  17125659.641 5  13344816.365 5  23435722.794    23435737.247           7.500
         8.750
 99  3  1 20 39 45.0010000  0  6G 2G 7G 4G 9G26G27
   4499366.040 6   3507948.821 6  21992765.442    21992775.274          18.500
        15.750
  -3666556.401 6  -2844573.037 6  20884382.731    20884392.181          18.250
        20.750
  -9937004.981 6  -7712722.010 6  22276751.247    22276762.688          13.750
        14.000
  -6764648.606 6  -5243222.918 5  22877791.794    22877802.192          13.250
        11.250
     20467.398 4     27461.760 5  23746315.067    23746327.759           7.250
         8.500
  17184140.715 5  13390385.903 5  23446851.356    23446865.896           7.500
         8.750
 99  3  1 20 40  0.0010000  0  6G 2G 7G 4G 9G26G27
   4520178.736 6   3524166.494 6  21996726.185    21996735.946          18.500
        15.750
  -3645185.139 6  -2827920.096 6  20888449.685    20888459.052          18.000
        20.500
  -9977313.485 6  -7744131.173 6  22269080.833    22269092.063          14.000
        14.000
  -6800374.057 6  -5271060.858 5  22870993.856    22871003.876          14.000
        11.500
     52481.645 4     52407.864 5  23752407.161    23752420.001           6.750
         8.000
  17242674.416 5  13435996.437 5  23457989.989    23458004.466           7.500
         8.250
 99  3  1 20 40 15.0010000  0  6G 2G 7G 4G 9G26G27
   4541044.345 6   3540425.402 6  22000696.747    22000706.536          18.250
        15.750
  -3623734.606 6  -2811205.387 6  20892531.528    20892540.653          18.250
        20.500
 -10017539.989 6  -7775476.438 6  22261425.825    22261436.903          13.750
        13.750
  -6836029.286 6  -5298844.089 5  22864208.114    22864218.790          13.500
        11.750
     84573.195 4     77414.205 5  23758513.802    23758526.603           6.500
         7.750
  17301257.690 5  13481645.616 5  23469138.286    23469152.673           7.500
         8.250
 99  3  1 20 40 30.0010000  0  6G 2G 7G 4G 9G26G27
   4561959.440 6   3556722.868 6  22004676.606    22004686.552          18.250
        15.750
  -3602204.059 6  -2794428.328 6  20896628.614    20896637.673          18.250
        20.250
 -10057682.314 6  -7806756.107 6  22253786.989    22253798.063          13.750
        13.500
  -6871608.375 6  -5326567.987 5  22857438.208    22857447.794          14.000
        11.250
    116741.756 4    102480.562 5  23764635.661    23764648.325           6.500
         7.250
  17359890.635 5  13527333.485 5  23480295.630    23480310.364           7.500
         8.250
 99  3  1 20 40 45.0010000  0  6G 2G 7G 4G 9G26G27
   4582924.350 6   3573059.146 6  22008666.138    22008675.942          18.500
        15.750
  -3580595.771 6  -2777590.702 6  20900740.575    20900749.454          18.250
        20.250
 -10097742.096 6  -7837971.462 6  22246163.974    22246174.931          13.500
        13.500
  -6907109.106 6  -5354230.843 5  22850682.521    22850692.431          14.000
        11.500
    148988.780 4    127608.054 5  23770772.231    23770785.134           6.250
         6.750
  17418571.202 5  13573058.461 5  23491462.841    23491477.005           7.750
         8.250
 99  3  1 20 41  0.0010000  0  6G 2G 7G 4G 9G26G27
   4603936.655 6   3589432.355 6  22012664.692    22012674.614          18.500
        15.750
  -3558912.347 6  -2760694.515 6  20904866.888    20904875.606          18.500
        20.250
 -10137723.558 6  -7869125.779 6  22238555.497    22238566.817          13.750
        13.500
  -6942530.231 6  -5381831.656 5  22843940.903    22843951.981          13.000
        11.750
    181312.224 3    152795.096 5  23776923.067    23776935.946           6.000
         6.250
  17477298.641 5  13618819.971 5  23502637.786    23502652.669           7.500
         8.250
 99  3  1 20 41 15.0010000  0  6G 2G 7G 4G 9G26G27
   4624996.953 6   3605842.972 6  22016672.239    22016682.286          18.500
        16.000
  -3537152.558 6  -2743738.827 6  20909007.646    20909016.392          18.500
        20.000
 -10177628.449 6  -7900220.439 6  22230961.810    22230972.872          13.750
        13.500
  -6977869.539 6  -5409368.704 6  22837216.271    22837227.267          13.000
        12.000
    213713.926 3    178043.104 5  23783089.028    23783101.923           5.750
         6.000
  17536073.395 5  13664618.335 5  23513822.700    23513837.403           7.500
         8.250
 99  3  1 20 41 30.0010000  0  6G 2G 7G 4G 9G26G27
   4646109.720 6   3622294.460 6  22020689.989    22020700.009          18.250
        16.000
  -3515313.889 6  -2726721.677 6  20913163.575    20913172.290          18.500
        20.250
 -10217451.558 6  -7931251.368 6  22223383.856    22223394.759          14.000
        13.250
  -7013122.578 6  -5436838.536 5  22830508.036    22830518.657          13.250
        11.750
    246197.127 3    203354.631 5  23789270.247    23789283.177           5.500
         5.500
  17594897.972 5  13710455.534 5  23525016.903    23525030.915           7.750
         8.250
 99  3  1 20 41 45.0010000  0  6G 2G 7G 4G 9G26G27
   4667270.777 6   3638783.582 6  22024716.778    22024726.880          18.250
        16.000
  -3493403.114 6  -2709648.336 6  20917333.013    20917341.829          18.500
        20.250
 -10257189.651 6  -7962216.049 6  22215821.771    22215832.692          14.000
        13.250
  -7048292.813 6  -5464243.843 5  22823815.771    22823825.942          13.500
        11.750
    278755.035 2    228724.352 5  23795465.739    23795478.419           4.750
         4.750
  17653770.099 5  13756329.783 5  23536219.599    23536234.548           7.500
         8.250
 99  3  1 20 42  0.0010000  0  6G 2G 7G 4G 9G26G27
   4688479.786 6   3655310.071 6  22028752.771    22028762.907          18.250
        16.000
  -3471420.882 6  -2692519.319 6  20921516.044    20921524.903          18.500
        20.250
 -10296840.987 6  -7993113.125 6  22208276.521    22208287.060          14.250
        13.250
  -7083382.175 6  -5491586.142 6  22817139.028    22817148.685          14.250
        12.000
    311386.042 2    254151.065 5  23801675.442    23801688.294           4.500
         4.500
  17712689.672 5  13802240.993 5  23547431.919    23547446.517           7.500
         8.250
 99  3  1 20 42 15.0010000  0  6G 2G 7G 4G 9G26G27
   4709738.966 6   3671875.652 6  22032798.364    22032808.458          18.250
        16.000
  -3449370.823 6  -2675337.443 6  20925711.935    20925720.935          18.250
        20.250
 -10336409.294 6  -8023945.504 6  22200746.778    22200757.399          14.500
        13.250
  -7118389.333 6  -5518864.381 6  22810477.036    22810486.755          14.250
        12.000
    344087.140 2    279632.374 4  23807898.466    23807911.024           4.250
         4.000
  17771658.043 5  13848190.236 5  23558653.638    23558668.106           7.500
         8.250
 99  3  1 20 42 30.0010000  0  6G 2G 7G 4G 9G26G27
   4731048.569 6   3688480.529 6  22036853.333    22036863.532          18.250
        16.000
  -3427253.497 6  -2658103.148 6  20929920.591    20929929.704          18.250
        20.500
 -10375894.209 6  -8054712.895 6  22193232.974    22193243.763          14.750
        13.500
  -7153310.371 6  -5546075.510 6  22803831.599    22803841.415          14.250
        12.000
    376857.504 2    305167.683 4  23814134.153    23814146.981           3.750
         4.000
  17830678.715 4  13894180.221 5  23569884.341    23569899.435           7.250
         8.250
 99  3  1 20 42 45.0010000  0  6G 2G 7G 4G 9G26G27
   4752412.822 6   3705127.979 6  22040918.966    22040929.075          18.250
        16.000
  -3405071.422 6  -2640818.404 6  20934141.669    20934150.927          18.000
        20.500
 -10415298.548 6  -8085417.509 6  22185734.544    22185745.181          15.000
        13.500
  -7188144.841 6  -5573219.193 6  22797202.856    22797212.810          14.250
        12.000
    409696.254 1    330756.245 4  23820383.216    23820396.235           3.250
         4.000
  17889753.746 4  13940212.562 5  23581126.505    23581141.173           7.250
         8.250
 99  3  1 20 43  0.0010000  0  6G 2G 7G 4G 9G26G27
   4773834.500 6   3721820.185 6  22044995.396    22045005.481          18.250
        16.000
  -3382821.009 6  -2623480.401 6  20938375.747    20938385.048          18.000
        20.500
 -10454623.797 6  -8116060.490 6  22178250.981    22178261.681          15.000
        14.000
  -7222892.320 6  -5600295.085 6  22790590.388    22790601.310          14.250
        13.250
    442604.291 1    356398.831 4  23826645.997    23826658.673           2.750
         4.000
  17948887.197 4  13986290.423 5  23592378.896    23592393.743           7.000
         8.000
 99  3  1 20 43 15.0010000  0  6G 2G 7G 4G 9G26G27
   4795316.037 6   3738559.025 6  22049083.075    22049093.392          18.250
        16.000
  -3360495.936 6  -2606084.229 6  20942623.958    20942633.345          18.000
        20.500
 -10493864.707 6  -8146637.759 6  22170783.614    22170794.380          15.000
        14.000
  -7257551.764 6  -5627302.373 6  22783994.450    22784005.278          13.750
        12.750
    475582.036 1    382095.709 4  23832921.208    23832934.368           2.750
         3.750
  18008082.856 4  14032416.775 5  23603643.966    23603658.845           7.000
         8.250
 99  3  1 20 43 30.0010000  0  6G 2G 7G 4G 9G26G27
   4816854.667 6   3755342.356 6  22053181.778    22053191.876          18.250
        16.000
  -3338097.224 6  -2588630.673 6  20946886.294    20946895.489          18.000
        20.500
 -10533018.009 6  -8177146.756 6  22163333.083    22163343.724          15.000
        14.250
  -7292126.212 6  -5654243.436 6  22777415.255    22777426.517          13.500
        13.000
    508627.382 1    407845.227 4  23839210.099    23839222.146           2.500
         3.500
  18067338.235 4  14078589.653 5  23614919.528    23614934.771           6.750
         8.000
 99  3  1 20 43 45.0010000  0  6G 2G 7G 4G 9G26G27
   4838445.031 6   3772165.999 6  22057290.294    22057300.403          18.250
        16.000
  -3315630.031 6  -2571123.758 6  20951161.708    20951170.837          18.000
        20.250
 -10572087.167 6  -8207590.189 6  22155898.341    22155909.165          15.000
        14.500
  -7326618.392 6  -5681120.389 6  22770851.341    22770863.188          13.500
        13.500
      4414.85511    433642.437 3  23845509.333    23845522.286           2.250
         3.250
  18126648.172 4  14124805.044 5  23626206.731    23626221.310           7.000
         8.000
 99  3  1 20 44  0.0010000  0  6G 2G 7G 4G 9G26G27
   4860088.618 6   3789031.121 6  22061408.958    22061419.032          18.250
        16.000
  -3293092.322 6  -2553561.896 6  20955450.622    20955459.692          18.000
        20.250
 -10611073.333 6  -8237968.954 6  22148479.442    22148490.419          14.750
        14.750
  -7361027.416 6  -5707932.533 6  22764303.536    22764315.146          13.500
        13.500
     37586.423 1    459490.400 3  23851822.021    23851834.958           2.250
         3.000
  18186014.558 4  14171064.432 5  23637503.388    23637518.337           6.750
         7.750
 99  3  1 20 44 15.0010000  0  6G 2G 7G 4G 9G26G27
   4881789.467 6   3805940.854 6  22065538.614    22065548.634          18.250
        15.750
  -3270481.830 6  -2535943.316 6  20959753.302    20959762.310          18.000
        20.250
 -10649979.503 6  -8268285.374 6  22141075.817    22141086.810          14.500
        14.750
  -7395351.745 6  -5734678.710 6  22757772.052    22757782.981          14.000
        13.000
     70826.493 1    485391.653 3  23858147.427    23858160.267           2.000
         2.750
  18245438.981 4  14217369.032 5  23648811.333    23648826.657           6.750
         7.750
 99  3  1 20 44 30.0010000  0  6G 2G 7G 4G 9G26G27
   4903545.558 6   3822893.636 6  22069678.716    22069688.806          18.500
        15.750
  -3247802.172 6  -2518270.847 6  20964069.083    20964078.013          18.000
        20.250
 -10688807.820 6  -8298541.128 6  22133686.935    22133697.923          14.500
        15.000
  -7429591.631 6  -5761359.076 6  22751255.786    22751267.294          13.500
        13.000
    104135.259 1    511346.445 3  23864485.669    23864498.489           1.750
         2.500
  18304917.843 4  14263716.056 5  23660130.239    23660145.302           6.500
         8.000
 99  3  1 20 44 45.0010000  0  6G 2G 7G 4G 9G26G27
   4925355.824 6   3839888.634 6  22073829.138    22073839.106          18.500
        15.750
  -3225052.063 6  -2500543.473 6  20968398.255    20968407.095          18.000
        20.000
 -10727555.072 6  -8328733.721 6  22126313.388    22126324.591          14.250
        15.250
  -7463748.082 6  -5787974.428 6  22744756.114    22744767.399          14.000
        13.000
                    537354.197 2                  22744769.290           2.000

  18364451.618 4  14310105.854 5  23671459.122    23671474.435           6.500
         7.750
 99  3  1 20 45  0.0010000  0  5G 2G 7G 4G 9G27
   4947222.959 6   3856927.938 6  22077990.247    22078000.333          18.500
        16.000
  -3202232.136 6  -2482761.700 6  20972740.630    20972749.587          18.250
        20.000
 -10766220.834 6  -8358862.809 6  22118955.450    22118966.524          14.250
        15.750
  -7497821.342 6  -5814524.952 6  22738272.200    22738283.196          14.000
        13.000
  18424039.750 4  14356537.997 5  23682798.872    23682813.700           6.500
         7.500
